GEFSNE_prec_meanprecacc_150.txt.gz
Total_Precipitation_Accumulation
1.02 1.13 1.25 1.31 1.34 1.40 1.49 1.57 1.62 1.60 1.45 1.27 1.24 1.23 1.23 1.24 1.39 1.11 1.00 1.17 1.12 1.08 1.04 0.97 0.90 0.86 0.86 0.87 0.91 0.96 0.99 0.98 1.00 1.04 1.08 1.15 1.21 1.28
0.80 0.87 0.99 1.11 1.19 1.27 1.36 1.41 1.41 1.39 1.39 1.23 1.15 1.15 1.14 1.11 1.22 0.93 0.91 1.05 0.97 0.92 0.88 0.86 0.83 0.78 0.76 0.77 0.80 0.81 0.80 0.77 0.77 0.78 0.79 0.81 0.90 1.00
0.82 0.86 0.90 0.96 1.03 1.07 1.11 1.16 1.25 1.30 1.38 1.37 1.24 1.17 1.12 1.07 1.02 0.88 0.80 0.78 0.81 0.85 0.80 0.77 0.72 0.69 0.64 0.60 0.57 0.55 0.55 0.55 0.57 0.59 0.62 0.65 0.67 0.71
0.70 0.74 0.75 0.75 0.81 0.89 0.95 0.98 1.04 1.11 1.20 1.31 1.23 1.10 1.05 1.00 0.92 0.86 0.73 0.64 0.64 0.69 0.65 0.60 0.58 0.54 0.50 0.46 0.42 0.39 0.38 0.38 0.42 0.46 0.50 0.54 0.59 0.63
0.57 0.58 0.61 0.63 0.65 0.68 0.71 0.76 0.82 0.86 0.95 1.01 1.02 0.95 0.92 0.85 0.81 0.74 0.66 0.66 0.56 0.58 0.54 0.50 0.46 0.41 0.35 0.31 0.30 0.30 0.30 0.29 0.27 0.29 0.33 0.38 0.43 0.45
0.40 0.41 0.47 0.54 0.55 0.56 0.54 0.56 0.61 0.70 0.78 0.84 0.85 0.84 0.81 0.74 0.74 0.71 0.64 0.58 0.52 0.42 0.44 0.40 0.36 0.32 0.30 0.28 0.25 0.23 0.23 0.24 0.25 0.25 0.23 0.22 0.22 0.22
0.29 0.28 0.30 0.38 0.46 0.46 0.45 0.49 0.55 0.63 0.66 0.70 0.69 0.66 0.64 0.69 0.71 0.63 0.58 0.52 0.47 0.37 0.40 0.40 0.39 0.41 0.44 0.39 0.30 0.23 0.19 0.18 0.18 0.16 0.14 0.13 0.13 0.12
0.28 0.28 0.28 0.30 0.33 0.35 0.40 0.50 0.60 0.61 0.63 0.66 0.63 0.62 0.60 0.60 0.61 0.61 0.60 0.60 0.60 0.45 0.44 0.41 0.38 0.43 0.42 0.40 0.33 0.23 0.17 0.15 0.13 0.12 0.11 0.10 0.09 0.09
0.30 0.31 0.27 0.27 0.30 0.32 0.36 0.42 0.48 0.50 0.57 0.68 0.73 0.68 0.67 0.67 0.68 0.65 0.68 0.70 0.67 0.56 0.59 0.56 0.40 0.39 0.30 0.25 0.24 0.19 0.17 0.14 0.12 0.10 0.09 0.08 0.07 0.07
0.31 0.32 0.33 0.33 0.32 0.34 0.35 0.37 0.44 0.49 0.52 0.56 0.68 0.67 0.62 0.64 0.69 0.70 0.72 0.73 0.71 0.67 0.69 0.69 0.45 0.37 0.28 0.33 0.28 0.19 0.16 0.15 0.12 0.10 0.08 0.06 0.05 0.06
0.26 0.25 0.28 0.31 0.32 0.32 0.36 0.45 0.50 0.54 0.46 0.49 0.59 0.65 0.67 0.67 0.64 0.67 0.80 0.91 0.86 0.68 0.64 0.68 0.53 0.42 0.35 0.36 0.31 0.23 0.18 0.16 0.13 0.10 0.09 0.09 0.09 0.08
0.28 0.26 0.24 0.24 0.26 0.26 0.35 0.47 0.56 0.57 0.51 0.54 0.68 0.75 0.73 0.79 0.75 0.76 0.92 0.96 0.90 0.84 0.67 0.65 0.61 0.55 0.53 0.38 0.34 0.31 0.30 0.25 0.17 0.15 0.12 0.12 0.14 0.17
0.31 0.34 0.31 0.22 0.20 0.23 0.30 0.39 0.47 0.46 0.55 0.70 0.77 0.79 0.79 0.83 0.78 0.73 0.82 0.88 0.93 0.97 0.74 0.69 0.69 0.67 0.69 0.53 0.34 0.30 0.34 0.38 0.38 0.38 0.32 0.24 0.20 0.19
0.35 0.34 0.30 0.22 0.21 0.24 0.30 0.37 0.40 0.47 0.63 0.77 0.83 0.82 0.76 0.73 0.71 0.67 0.70 0.73 0.81 0.83 0.72 0.68 0.77 0.78 0.71 0.59 0.44 0.32 0.34 0.43 0.56 0.66 0.63 0.50 0.36 0.29
0.25 0.22 0.21 0.23 0.27 0.39 0.39 0.38 0.46 0.64 0.74 0.77 0.82 0.82 0.72 0.64 0.60 0.57 0.59 0.67 0.71 0.63 0.52 0.50 0.63 0.63 0.62 0.59 0.53 0.44 0.40 0.42 0.56 0.71 0.77 0.71 0.59 0.44
0.25 0.25 0.30 0.36 0.41 0.49 0.55 0.61 0.66 0.69 0.66 0.71 0.74 0.70 0.59 0.54 0.55 0.54 0.57 0.63 0.69 0.64 0.48 0.39 0.45 0.52 0.56 0.50 0.49 0.49 0.45 0.53 0.60 0.70 0.82 0.86 0.73 0.52
0.21 0.34 0.51 0.56 0.61 0.64 0.68 0.72 0.75 0.69 0.63 0.62 0.63 0.61 0.57 0.53 0.50 0.44 0.49 0.51 0.57 0.58 0.50 0.39 0.38 0.39 0.36 0.36 0.43 0.45 0.44 0.52 0.63 0.71 0.81 0.95 0.91 0.67
0.26 0.46 0.55 0.57 0.60 0.59 0.58 0.62 0.68 0.66 0.58 0.54 0.55 0.55 0.53 0.49 0.49 0.44 0.42 0.49 0.53 0.49 0.44 0.37 0.33 0.33 0.32 0.31 0.37 0.44 0.45 0.58 0.68 0.67 0.65 0.80 0.99 0.87
0.40 0.51 0.51 0.53 0.56 0.52 0.51 0.55 0.57 0.55 0.48 0.45 0.44 0.41 0.39 0.38 0.40 0.40 0.38 0.39 0.39 0.35 0.32 0.27 0.25 0.30 0.34 0.41 0.46 0.59 0.60 0.60 0.60 0.58 0.59 0.68 0.92 0.92
0.44 0.45 0.44 0.45 0.47 0.47 0.45 0.44 0.41 0.37 0.33 0.34 0.35 0.33 0.30 0.31 0.33 0.34 0.30 0.28 0.31 0.31 0.28 0.23 0.20 0.24 0.32 0.39 0.59 0.74 0.70 0.53 0.47 0.57 0.66 0.72 0.84 0.83
0.34 0.36 0.37 0.36 0.37 0.41 0.40 0.34 0.29 0.27 0.24 0.23 0.25 0.27 0.27 0.26 0.26 0.24 0.20 0.16 0.20 0.22 0.25 0.25 0.22 0.20 0.22 0.23 0.40 0.62 0.68 0.73 0.64 0.62 0.66 0.64 0.55 0.45
0.26 0.28 0.26 0.25 0.28 0.28 0.25 0.23 0.21 0.21 0.19 0.17 0.17 0.18 0.19 0.19 0.18 0.16 0.14 0.14 0.15 0.15 0.18 0.19 0.18 0.17 0.18 0.23 0.37 0.53 0.55 0.51 0.51 0.56 0.59 0.44 0.30 0.31
0.24 0.23 0.20 0.18 0.18 0.18 0.17 0.17 0.16 0.15 0.15 0.16 0.15 0.14 0.14 0.14 0.11 0.10 0.09 0.08 0.09 0.08 0.09 0.13 0.13 0.12 0.12 0.14 0.20 0.27 0.26 0.22 0.17 0.18 0.34 0.45 0.41 0.44

GEFSNE_prec_meanprecacc_156.txt.gz
Total_Precipitation_Accumulation
1.04 1.14 1.26 1.33 1.36 1.43 1.53 1.62 1.66 1.63 1.48 1.30 1.27 1.26 1.25 1.26 1.42 1.14 1.05 1.23 1.18 1.14 1.10 1.02 0.93 0.90 0.89 0.91 0.95 1.02 1.05 1.05 1.07 1.12 1.16 1.21 1.26 1.33
0.82 0.88 0.99 1.12 1.20 1.28 1.39 1.45 1.46 1.44 1.43 1.26 1.18 1.18 1.17 1.14 1.26 0.96 0.95 1.13 1.03 0.97 0.94 0.92 0.87 0.82 0.79 0.80 0.83 0.85 0.84 0.81 0.82 0.83 0.84 0.86 0.94 1.05
0.83 0.87 0.91 0.96 1.03 1.08 1.12 1.18 1.27 1.33 1.42 1.41 1.27 1.21 1.17 1.12 1.08 0.93 0.85 0.82 0.86 0.90 0.85 0.83 0.78 0.74 0.69 0.64 0.60 0.58 0.58 0.58 0.61 0.63 0.66 0.69 0.71 0.75
0.71 0.75 0.76 0.75 0.82 0.90 0.95 0.99 1.05 1.12 1.23 1.34 1.27 1.14 1.08 1.06 1.00 0.93 0.80 0.70 0.68 0.74 0.69 0.65 0.63 0.61 0.57 0.51 0.45 0.43 0.41 0.41 0.44 0.48 0.53 0.57 0.62 0.65
0.58 0.59 0.62 0.64 0.66 0.69 0.72 0.77 0.83 0.88 0.97 1.03 1.04 0.98 0.95 0.90 0.88 0.83 0.75 0.74 0.63 0.63 0.57 0.52 0.49 0.46 0.43 0.38 0.35 0.34 0.33 0.32 0.30 0.31 0.35 0.41 0.45 0.47
0.41 0.43 0.48 0.55 0.56 0.56 0.55 0.57 0.62 0.72 0.79 0.86 0.87 0.86 0.84 0.78 0.78 0.77 0.72 0.66 0.60 0.49 0.49 0.43 0.38 0.35 0.34 0.33 0.30 0.27 0.26 0.28 0.28 0.27 0.25 0.24 0.24 0.23
0.29 0.29 0.31 0.40 0.47 0.47 0.45 0.49 0.57 0.65 0.68 0.72 0.71 0.69 0.69 0.73 0.73 0.66 0.62 0.57 0.53 0.44 0.47 0.44 0.42 0.43 0.46 0.42 0.34 0.28 0.23 0.22 0.21 0.19 0.17 0.16 0.15 0.14
0.28 0.29 0.28 0.31 0.35 0.36 0.41 0.51 0.61 0.62 0.65 0.68 0.66 0.66 0.66 0.65 0.64 0.63 0.63 0.63 0.64 0.50 0.50 0.47 0.41 0.46 0.44 0.42 0.36 0.27 0.22 0.20 0.18 0.17 0.15 0.13 0.13 0.12
0.31 0.32 0.28 0.27 0.31 0.32 0.37 0.43 0.48 0.51 0.58 0.70 0.75 0.71 0.70 0.71 0.72 0.68 0.70 0.73 0.70 0.60 0.66 0.63 0.45 0.43 0.32 0.27 0.27 0.22 0.20 0.17 0.16 0.15 0.14 0.13 0.12 0.12
0.31 0.33 0.34 0.33 0.33 0.35 0.35 0.38 0.44 0.50 0.53 0.57 0.70 0.68 0.64 0.66 0.71 0.73 0.74 0.76 0.74 0.70 0.74 0.75 0.51 0.42 0.31 0.35 0.30 0.20 0.18 0.17 0.15 0.13 0.12 0.10 0.09 0.09
0.26 0.25 0.28 0.32 0.33 0.34 0.37 0.46 0.51 0.55 0.47 0.50 0.60 0.66 0.68 0.68 0.65 0.69 0.82 0.94 0.89 0.70 0.66 0.73 0.60 0.47 0.39 0.39 0.34 0.25 0.20 0.18 0.15 0.12 0.12 0.12 0.11 0.11
0.28 0.27 0.25 0.25 0.27 0.27 0.36 0.48 0.57 0.58 0.51 0.55 0.68 0.76 0.74 0.80 0.75 0.77 0.94 0.98 0.93 0.87 0.70 0.69 0.66 0.61 0.58 0.43 0.38 0.34 0.32 0.27 0.20 0.17 0.14 0.14 0.16 0.19
0.33 0.35 0.32 0.22 0.20 0.23 0.31 0.40 0.48 0.47 0.55 0.71 0.78 0.80 0.81 0.84 0.79 0.73 0.83 0.90 0.95 0.99 0.77 0.74 0.75 0.72 0.73 0.56 0.37 0.33 0.35 0.39 0.40 0.41 0.35 0.27 0.22 0.21
0.36 0.35 0.31 0.22 0.21 0.25 0.30 0.38 0.41 0.48 0.64 0.78 0.84 0.83 0.77 0.75 0.73 0.68 0.71 0.74 0.82 0.84 0.74 0.72 0.82 0.83 0.75 0.62 0.46 0.33 0.35 0.44 0.57 0.68 0.65 0.53 0.38 0.31
0.26 0.24 0.22 0.24 0.27 0.39 0.39 0.39 0.47 0.65 0.75 0.78 0.83 0.83 0.73 0.66 0.62 0.58 0.61 0.68 0.73 0.65 0.53 0.52 0.66 0.66 0.66 0.63 0.56 0.46 0.42 0.43 0.57 0.73 0.78 0.72 0.60 0.45
0.25 0.26 0.31 0.37 0.41 0.50 0.56 0.62 0.67 0.70 0.67 0.72 0.75 0.72 0.62 0.56 0.57 0.56 0.59 0.64 0.70 0.65 0.49 0.41 0.47 0.54 0.58 0.53 0.53 0.51 0.46 0.55 0.61 0.71 0.83 0.87 0.74 0.53
0.21 0.35 0.52 0.57 0.62 0.65 0.69 0.73 0.75 0.70 0.64 0.63 0.64 0.63 0.59 0.55 0.52 0.48 0.52 0.53 0.59 0.60 0.51 0.41 0.39 0.42 0.39 0.39 0.46 0.48 0.46 0.53 0.65 0.72 0.83 0.97 0.92 0.67
0.26 0.46 0.56 0.58 0.61 0.60 0.60 0.64 0.68 0.66 0.59 0.55 0.56 0.56 0.54 0.51 0.51 0.46 0.44 0.51 0.56 0.50 0.46 0.38 0.34 0.35 0.36 0.33 0.40 0.45 0.47 0.60 0.69 0.69 0.66 0.82 1.01 0.88
0.40 0.51 0.52 0.53 0.56 0.53 0.51 0.55 0.58 0.56 0.49 0.47 0.45 0.43 0.40 0.39 0.42 0.42 0.39 0.41 0.40 0.36 0.33 0.28 0.26 0.31 0.36 0.43 0.47 0.61 0.61 0.62 0.62 0.60 0.60 0.69 0.93 0.93
0.46 0.47 0.45 0.46 0.48 0.48 0.46 0.44 0.42 0.38 0.33 0.34 0.37 0.34 0.31 0.33 0.35 0.35 0.31 0.29 0.33 0.32 0.29 0.25 0.21 0.26 0.34 0.41 0.61 0.76 0.72 0.54 0.48 0.58 0.68 0.73 0.84 0.83
0.36 0.38 0.38 0.37 0.37 0.42 0.41 0.35 0.30 0.28 0.25 0.24 0.26 0.29 0.29 0.27 0.28 0.25 0.21 0.17 0.22 0.24 0.26 0.26 0.23 0.21 0.25 0.26 0.42 0.64 0.70 0.75 0.66 0.63 0.68 0.66 0.56 0.45
0.29 0.30 0.28 0.26 0.29 0.29 0.26 0.25 0.23 0.23 0.21 0.19 0.19 0.20 0.21 0.23 0.21 0.18 0.14 0.15 0.16 0.16 0.19 0.21 0.20 0.19 0.22 0.26 0.40 0.55 0.57 0.53 0.52 0.57 0.60 0.46 0.31 0.32
0.27 0.26 0.23 0.21 0.20 0.20 0.19 0.19 0.18 0.17 0.17 0.18 0.17 0.16 0.16 0.16 0.13 0.11 0.10 0.10 0.10 0.09 0.11 0.14 0.15 0.15 0.15 0.17 0.22 0.29 0.28 0.23 0.17 0.19 0.35 0.46 0.42 0.45

GEFSNE_prec_meanprecacc_162.txt.gz
Total_Precipitation_Accumulation
1.08 1.18 1.29 1.35 1.37 1.45 1.55 1.65 1.70 1.66 1.49 1.31 1.30 1.30 1.29 1.31 1.47 1.19 1.11 1.29 1.22 1.18 1.15 1.08 0.99 0.96 0.94 0.95 0.99 1.07 1.12 1.14 1.19 1.23 1.27 1.32 1.36 1.43
0.84 0.92 1.03 1.14 1.22 1.30 1.41 1.48 1.50 1.48 1.45 1.28 1.20 1.21 1.21 1.19 1.31 1.00 0.98 1.16 1.06 1.00 0.97 0.96 0.92 0.88 0.86 0.86 0.87 0.89 0.89 0.88 0.91 0.92 0.92 0.93 1.02 1.14
0.84 0.89 0.93 0.99 1.05 1.09 1.14 1.20 1.30 1.37 1.45 1.44 1.30 1.24 1.22 1.18 1.13 0.97 0.88 0.84 0.89 0.94 0.89 0.87 0.83 0.79 0.77 0.73 0.66 0.62 0.61 0.63 0.67 0.71 0.73 0.75 0.78 0.83
0.72 0.76 0.77 0.76 0.83 0.91 0.96 0.99 1.06 1.14 1.26 1.37 1.30 1.17 1.11 1.10 1.06 0.98 0.84 0.73 0.70 0.78 0.75 0.71 0.70 0.68 0.64 0.60 0.56 0.50 0.46 0.45 0.49 0.53 0.58 0.63 0.68 0.72
0.60 0.60 0.63 0.64 0.67 0.70 0.73 0.78 0.84 0.89 0.98 1.05 1.07 1.01 0.97 0.93 0.94 0.89 0.80 0.78 0.67 0.68 0.62 0.58 0.56 0.54 0.51 0.45 0.43 0.45 0.43 0.39 0.34 0.35 0.39 0.45 0.49 0.52
0.41 0.43 0.49 0.55 0.57 0.58 0.56 0.58 0.63 0.73 0.80 0.87 0.89 0.88 0.86 0.81 0.82 0.83 0.77 0.70 0.64 0.53 0.54 0.48 0.44 0.41 0.41 0.40 0.37 0.36 0.36 0.36 0.35 0.32 0.29 0.28 0.28 0.27
0.30 0.29 0.32 0.40 0.48 0.49 0.47 0.50 0.57 0.65 0.69 0.73 0.72 0.70 0.71 0.75 0.77 0.71 0.65 0.60 0.55 0.47 0.51 0.48 0.46 0.46 0.50 0.48 0.42 0.37 0.35 0.32 0.28 0.25 0.22 0.21 0.20 0.19
0.30 0.30 0.30 0.32 0.36 0.37 0.42 0.53 0.63 0.64 0.66 0.69 0.67 0.68 0.68 0.67 0.67 0.66 0.66 0.66 0.66 0.52 0.52 0.50 0.46 0.51 0.49 0.46 0.42 0.36 0.32 0.31 0.28 0.24 0.22 0.19 0.18 0.19
0.32 0.33 0.29 0.28 0.32 0.33 0.38 0.45 0.50 0.52 0.60 0.71 0.77 0.73 0.72 0.73 0.75 0.71 0.72 0.75 0.72 0.62 0.69 0.65 0.49 0.46 0.37 0.33 0.32 0.27 0.28 0.29 0.27 0.24 0.23 0.21 0.19 0.19
0.32 0.33 0.34 0.34 0.34 0.36 0.36 0.39 0.45 0.51 0.54 0.60 0.73 0.71 0.65 0.68 0.73 0.77 0.79 0.79 0.77 0.73 0.77 0.79 0.55 0.46 0.35 0.40 0.37 0.25 0.22 0.23 0.23 0.22 0.21 0.20 0.19 0.20
0.27 0.26 0.29 0.32 0.34 0.34 0.38 0.47 0.52 0.56 0.49 0.52 0.61 0.68 0.70 0.70 0.67 0.71 0.86 0.98 0.93 0.74 0.70 0.76 0.64 0.52 0.43 0.43 0.38 0.30 0.24 0.22 0.18 0.16 0.18 0.20 0.21 0.21
0.30 0.28 0.26 0.27 0.28 0.28 0.36 0.49 0.59 0.59 0.53 0.56 0.70 0.79 0.77 0.82 0.78 0.79 0.96 1.01 0.96 0.89 0.72 0.73 0.70 0.65 0.62 0.46 0.41 0.38 0.37 0.33 0.25 0.20 0.17 0.18 0.23 0.28
0.34 0.36 0.33 0.24 0.21 0.24 0.31 0.41 0.49 0.48 0.56 0.72 0.79 0.81 0.82 0.86 0.81 0.75 0.85 0.93 0.99 1.03 0.80 0.76 0.78 0.76 0.76 0.60 0.41 0.36 0.39 0.43 0.45 0.46 0.39 0.31 0.28 0.27
0.37 0.36 0.32 0.23 0.22 0.25 0.31 0.39 0.42 0.49 0.66 0.80 0.85 0.84 0.78 0.76 0.75 0.70 0.74 0.77 0.84 0.87 0.77 0.75 0.85 0.87 0.79 0.66 0.50 0.38 0.40 0.49 0.61 0.71 0.68 0.57 0.44 0.38
0.27 0.25 0.23 0.25 0.28 0.40 0.41 0.41 0.49 0.66 0.77 0.80 0.84 0.85 0.75 0.67 0.63 0.60 0.63 0.70 0.75 0.67 0.55 0.54 0.68 0.69 0.69 0.66 0.59 0.50 0.47 0.49 0.62 0.78 0.83 0.77 0.65 0.51
0.26 0.27 0.32 0.38 0.42 0.51 0.57 0.63 0.67 0.70 0.68 0.73 0.76 0.73 0.63 0.57 0.59 0.58 0.62 0.67 0.73 0.68 0.51 0.42 0.48 0.56 0.61 0.56 0.56 0.55 0.51 0.60 0.66 0.76 0.89 0.93 0.79 0.58
0.22 0.35 0.53 0.58 0.63 0.67 0.71 0.75 0.77 0.71 0.65 0.64 0.64 0.64 0.60 0.57 0.54 0.51 0.56 0.58 0.62 0.62 0.54 0.43 0.41 0.43 0.41 0.42 0.50 0.52 0.50 0.57 0.69 0.76 0.87 1.03 0.99 0.73
0.27 0.47 0.56 0.59 0.62 0.62 0.62 0.66 0.71 0.69 0.61 0.57 0.57 0.58 0.56 0.53 0.53 0.49 0.48 0.55 0.59 0.53 0.48 0.40 0.36 0.36 0.37 0.35 0.42 0.49 0.51 0.63 0.73 0.73 0.70 0.86 1.06 0.93
0.41 0.52 0.53 0.54 0.57 0.54 0.53 0.57 0.59 0.57 0.51 0.48 0.47 0.44 0.42 0.42 0.45 0.46 0.42 0.43 0.43 0.39 0.35 0.30 0.28 0.33 0.38 0.44 0.49 0.63 0.64 0.64 0.65 0.64 0.64 0.73 0.98 0.98
0.46 0.48 0.47 0.47 0.49 0.49 0.47 0.45 0.43 0.39 0.35 0.36 0.39 0.37 0.34 0.36 0.39 0.39 0.33 0.31 0.35 0.34 0.31 0.26 0.22 0.27 0.35 0.43 0.62 0.77 0.74 0.56 0.50 0.61 0.71 0.76 0.88 0.90
0.37 0.39 0.40 0.38 0.39 0.43 0.41 0.36 0.31 0.29 0.27 0.26 0.29 0.31 0.32 0.31 0.31 0.29 0.23 0.19 0.24 0.26 0.28 0.28 0.24 0.23 0.26 0.29 0.44 0.65 0.70 0.77 0.68 0.65 0.70 0.69 0.59 0.50
0.30 0.31 0.29 0.28 0.30 0.31 0.28 0.26 0.24 0.24 0.22 0.20 0.20 0.21 0.24 0.26 0.24 0.22 0.17 0.17 0.18 0.18 0.20 0.22 0.21 0.20 0.23 0.29 0.42 0.56 0.58 0.54 0.54 0.59 0.62 0.48 0.34 0.35
0.29 0.27 0.24 0.22 0.21 0.21 0.21 0.21 0.20 0.19 0.19 0.20 0.19 0.18 0.18 0.18 0.17 0.15 0.13 0.11 0.11 0.11 0.13 0.16 0.16 0.16 0.17 0.19 0.25 0.31 0.29 0.23 0.18 0.20 0.37 0.48 0.44 0.48

GEFSNE_prec_meanprecacc_168.txt.gz
Total_Precipitation_Accumulation
1.12 1.22 1.34 1.39 1.41 1.49 1.61 1.71 1.78 1.74 1.56 1.39 1.37 1.36 1.35 1.36 1.52 1.24 1.16 1.34 1.26 1.21 1.18 1.11 1.03 0.99 0.98 1.00 1.05 1.14 1.20 1.22 1.26 1.31 1.37 1.45 1.51 1.57
0.88 0.95 1.06 1.16 1.24 1.32 1.44 1.52 1.55 1.55 1.53 1.35 1.28 1.27 1.26 1.24 1.35 1.03 1.02 1.21 1.11 1.03 0.99 0.98 0.95 0.92 0.90 0.90 0.93 0.96 0.97 0.96 0.97 0.98 0.98 1.02 1.13 1.26
0.89 0.93 0.97 1.01 1.07 1.11 1.16 1.23 1.34 1.42 1.51 1.49 1.35 1.30 1.28 1.24 1.18 1.00 0.91 0.87 0.92 0.98 0.93 0.90 0.86 0.82 0.81 0.77 0.72 0.70 0.69 0.70 0.74 0.77 0.77 0.80 0.84 0.91
0.78 0.81 0.80 0.79 0.85 0.93 0.99 1.02 1.10 1.18 1.30 1.42 1.35 1.22 1.16 1.15 1.11 1.03 0.88 0.77 0.74 0.81 0.78 0.74 0.73 0.70 0.67 0.64 0.62 0.58 0.54 0.52 0.56 0.61 0.63 0.66 0.71 0.77
0.65 0.65 0.66 0.67 0.70 0.73 0.76 0.81 0.87 0.92 1.02 1.11 1.13 1.08 1.04 0.98 0.99 0.95 0.85 0.84 0.71 0.71 0.65 0.60 0.58 0.56 0.54 0.49 0.48 0.52 0.51 0.45 0.41 0.43 0.45 0.50 0.54 0.56
0.47 0.48 0.53 0.59 0.60 0.62 0.60 0.62 0.67 0.77 0.85 0.92 0.95 0.95 0.93 0.87 0.87 0.89 0.84 0.77 0.68 0.56 0.58 0.51 0.46 0.43 0.43 0.43 0.40 0.38 0.40 0.43 0.43 0.41 0.36 0.34 0.33 0.31
0.36 0.35 0.36 0.44 0.51 0.51 0.49 0.54 0.61 0.70 0.74 0.78 0.76 0.74 0.75 0.80 0.82 0.78 0.73 0.66 0.60 0.50 0.55 0.52 0.49 0.49 0.52 0.50 0.45 0.39 0.37 0.36 0.33 0.32 0.30 0.28 0.28 0.25
0.36 0.36 0.34 0.36 0.38 0.40 0.44 0.55 0.65 0.67 0.70 0.75 0.72 0.72 0.73 0.72 0.72 0.73 0.72 0.72 0.71 0.57 0.57 0.54 0.49 0.54 0.51 0.48 0.45 0.39 0.35 0.36 0.33 0.29 0.27 0.26 0.26 0.26
0.36 0.36 0.32 0.30 0.35 0.36 0.41 0.47 0.52 0.54 0.62 0.75 0.83 0.79 0.77 0.79 0.81 0.76 0.77 0.80 0.77 0.67 0.74 0.70 0.53 0.49 0.40 0.35 0.35 0.30 0.31 0.35 0.34 0.30 0.29 0.28 0.26 0.26
0.35 0.36 0.38 0.37 0.36 0.38 0.39 0.42 0.48 0.53 0.57 0.63 0.77 0.75 0.70 0.73 0.78 0.80 0.83 0.83 0.81 0.77 0.82 0.83 0.59 0.49 0.38 0.43 0.40 0.29 0.25 0.27 0.31 0.30 0.29 0.27 0.26 0.26
0.29 0.27 0.31 0.34 0.36 0.35 0.39 0.49 0.54 0.58 0.50 0.53 0.63 0.70 0.72 0.72 0.70 0.74 0.89 1.01 0.96 0.77 0.74 0.81 0.68 0.56 0.46 0.46 0.41 0.34 0.27 0.25 0.22 0.23 0.26 0.29 0.29 0.30
0.33 0.30 0.28 0.29 0.30 0.30 0.38 0.51 0.62 0.61 0.54 0.57 0.71 0.81 0.80 0.85 0.81 0.82 1.00 1.05 1.00 0.93 0.77 0.78 0.75 0.70 0.66 0.50 0.45 0.42 0.40 0.35 0.27 0.23 0.22 0.24 0.31 0.37
0.36 0.38 0.34 0.25 0.22 0.25 0.33 0.43 0.51 0.50 0.58 0.74 0.81 0.83 0.86 0.90 0.85 0.80 0.89 0.97 1.04 1.08 0.86 0.83 0.85 0.82 0.83 0.64 0.44 0.40 0.43 0.47 0.48 0.48 0.43 0.35 0.32 0.33
0.38 0.36 0.33 0.25 0.23 0.26 0.32 0.40 0.43 0.51 0.68 0.83 0.89 0.88 0.82 0.80 0.79 0.75 0.78 0.81 0.88 0.91 0.83 0.82 0.92 0.95 0.87 0.72 0.56 0.43 0.45 0.53 0.65 0.75 0.72 0.62 0.48 0.43
0.28 0.25 0.24 0.26 0.29 0.41 0.43 0.43 0.51 0.70 0.80 0.84 0.89 0.90 0.80 0.71 0.67 0.63 0.66 0.75 0.78 0.70 0.58 0.58 0.74 0.76 0.77 0.75 0.67 0.58 0.55 0.55 0.67 0.82 0.86 0.80 0.70 0.57
0.27 0.27 0.33 0.38 0.43 0.51 0.58 0.65 0.70 0.74 0.72 0.77 0.81 0.78 0.67 0.61 0.63 0.62 0.66 0.71 0.77 0.72 0.55 0.47 0.53 0.61 0.68 0.63 0.64 0.63 0.60 0.68 0.72 0.81 0.94 0.98 0.84 0.62
0.22 0.36 0.54 0.59 0.64 0.69 0.73 0.78 0.81 0.75 0.69 0.67 0.68 0.68 0.65 0.61 0.59 0.55 0.60 0.62 0.68 0.68 0.59 0.49 0.46 0.48 0.47 0.49 0.57 0.60 0.59 0.67 0.78 0.84 0.95 1.10 1.05 0.79
0.27 0.48 0.58 0.61 0.64 0.64 0.64 0.69 0.74 0.73 0.64 0.60 0.61 0.62 0.60 0.57 0.57 0.52 0.52 0.60 0.66 0.61 0.55 0.47 0.43 0.42 0.43 0.40 0.47 0.55 0.59 0.73 0.83 0.84 0.80 0.94 1.15 1.01
0.41 0.53 0.55 0.57 0.60 0.56 0.56 0.60 0.63 0.61 0.54 0.52 0.51 0.50 0.47 0.47 0.51 0.51 0.48 0.49 0.49 0.45 0.42 0.36 0.35 0.41 0.45 0.51 0.54 0.67 0.70 0.72 0.76 0.76 0.75 0.83 1.06 1.05
0.48 0.50 0.49 0.50 0.51 0.51 0.50 0.49 0.46 0.42 0.38 0.40 0.43 0.43 0.41 0.43 0.45 0.46 0.41 0.39 0.41 0.40 0.37 0.33 0.30 0.34 0.42 0.49 0.68 0.82 0.77 0.63 0.60 0.71 0.83 0.87 0.97 0.98
0.42 0.44 0.44 0.41 0.41 0.45 0.44 0.39 0.35 0.33 0.30 0.30 0.32 0.36 0.38 0.37 0.39 0.37 0.32 0.26 0.29 0.32 0.34 0.34 0.30 0.27 0.31 0.35 0.51 0.71 0.76 0.81 0.74 0.73 0.78 0.78 0.69 0.59
0.35 0.36 0.34 0.32 0.33 0.33 0.30 0.29 0.27 0.28 0.25 0.23 0.23 0.25 0.28 0.30 0.30 0.29 0.26 0.24 0.25 0.24 0.26 0.28 0.27 0.26 0.28 0.36 0.50 0.63 0.66 0.59 0.57 0.62 0.65 0.52 0.40 0.42
0.33 0.31 0.29 0.26 0.24 0.23 0.23 0.23 0.22 0.22 0.21 0.22 0.22 0.21 0.22 0.23 0.21 0.20 0.19 0.17 0.16 0.16 0.18 0.21 0.22 0.22 0.23 0.26 0.31 0.37 0.35 0.29 0.22 0.23 0.39 0.51 0.47 0.51

GEFSNE_prec_meanprecacc_174.txt.gz
Total_Precipitation_Accumulation
1.20 1.31 1.44 1.49 1.52 1.59 1.70 1.80 1.87 1.82 1.64 1.47 1.48 1.48 1.47 1.49 1.65 1.32 1.23 1.41 1.31 1.25 1.21 1.14 1.07 1.04 1.03 1.07 1.13 1.22 1.27 1.30 1.33 1.37 1.43 1.52 1.58 1.65
0.94 1.02 1.13 1.23 1.32 1.42 1.54 1.62 1.65 1.65 1.62 1.45 1.39 1.40 1.38 1.34 1.45 1.12 1.10 1.28 1.16 1.07 1.01 1.00 0.98 0.95 0.93 0.94 0.98 1.02 1.03 1.02 1.04 1.04 1.04 1.08 1.20 1.32
0.95 1.00 1.04 1.08 1.14 1.18 1.24 1.32 1.43 1.51 1.60 1.56 1.43 1.39 1.37 1.33 1.25 1.07 0.98 0.93 0.97 1.02 0.95 0.91 0.87 0.84 0.83 0.81 0.75 0.74 0.75 0.76 0.80 0.82 0.82 0.85 0.90 0.98
0.85 0.88 0.89 0.88 0.94 1.00 1.07 1.10 1.18 1.27 1.39 1.49 1.42 1.30 1.25 1.23 1.18 1.10 0.93 0.82 0.79 0.84 0.80 0.76 0.74 0.72 0.69 0.67 0.67 0.63 0.59 0.58 0.61 0.64 0.67 0.70 0.76 0.83
0.72 0.72 0.74 0.76 0.78 0.81 0.85 0.91 0.96 1.00 1.12 1.18 1.19 1.14 1.10 1.04 1.06 1.02 0.91 0.90 0.76 0.76 0.68 0.63 0.60 0.58 0.55 0.52 0.53 0.58 0.56 0.50 0.45 0.45 0.48 0.54 0.58 0.61
0.54 0.56 0.62 0.68 0.69 0.71 0.70 0.72 0.76 0.85 0.94 1.01 1.01 1.01 0.99 0.93 0.95 0.98 0.93 0.86 0.76 0.62 0.64 0.55 0.49 0.45 0.45 0.45 0.43 0.42 0.43 0.46 0.47 0.44 0.39 0.36 0.36 0.36
0.42 0.42 0.43 0.50 0.56 0.56 0.54 0.60 0.68 0.77 0.82 0.86 0.84 0.81 0.82 0.87 0.88 0.85 0.81 0.76 0.71 0.61 0.63 0.58 0.54 0.53 0.55 0.52 0.46 0.42 0.41 0.38 0.35 0.35 0.34 0.31 0.30 0.28
0.41 0.43 0.39 0.40 0.42 0.43 0.46 0.57 0.68 0.71 0.75 0.81 0.79 0.79 0.79 0.79 0.80 0.80 0.83 0.83 0.82 0.67 0.65 0.60 0.54 0.59 0.56 0.52 0.47 0.41 0.38 0.39 0.35 0.31 0.30 0.29 0.29 0.28
0.40 0.41 0.35 0.34 0.39 0.41 0.44 0.50 0.55 0.56 0.64 0.78 0.87 0.84 0.83 0.85 0.88 0.84 0.88 0.91 0.86 0.76 0.82 0.76 0.58 0.54 0.44 0.39 0.38 0.33 0.34 0.37 0.36 0.32 0.31 0.30 0.29 0.29
0.38 0.40 0.42 0.41 0.41 0.42 0.43 0.46 0.52 0.57 0.60 0.65 0.80 0.79 0.74 0.77 0.82 0.85 0.89 0.89 0.86 0.82 0.88 0.89 0.64 0.54 0.42 0.48 0.44 0.32 0.27 0.29 0.33 0.32 0.31 0.30 0.30 0.31
0.32 0.30 0.33 0.37 0.39 0.38 0.42 0.52 0.57 0.62 0.52 0.55 0.64 0.71 0.73 0.73 0.71 0.76 0.93 1.06 1.01 0.82 0.80 0.87 0.72 0.61 0.52 0.51 0.46 0.37 0.30 0.27 0.25 0.26 0.29 0.31 0.32 0.34
0.35 0.32 0.29 0.30 0.31 0.31 0.40 0.54 0.64 0.64 0.57 0.60 0.74 0.83 0.81 0.87 0.82 0.83 1.03 1.09 1.04 0.98 0.82 0.84 0.80 0.77 0.73 0.56 0.50 0.46 0.42 0.37 0.29 0.26 0.24 0.26 0.34 0.39
0.39 0.40 0.35 0.26 0.23 0.26 0.34 0.45 0.53 0.52 0.60 0.77 0.85 0.87 0.90 0.94 0.89 0.84 0.94 1.02 1.08 1.12 0.91 0.90 0.91 0.90 0.91 0.71 0.51 0.47 0.49 0.50 0.50 0.50 0.45 0.36 0.34 0.35
0.40 0.38 0.34 0.25 0.23 0.27 0.33 0.42 0.45 0.52 0.70 0.87 0.92 0.92 0.85 0.84 0.84 0.80 0.84 0.87 0.92 0.95 0.86 0.88 0.98 1.02 0.95 0.79 0.62 0.50 0.52 0.59 0.69 0.77 0.75 0.65 0.51 0.46
0.29 0.26 0.25 0.27 0.30 0.42 0.44 0.43 0.53 0.72 0.83 0.88 0.94 0.94 0.84 0.75 0.71 0.67 0.72 0.81 0.83 0.74 0.61 0.63 0.81 0.84 0.86 0.82 0.75 0.66 0.63 0.63 0.75 0.90 0.93 0.85 0.72 0.60
0.28 0.28 0.34 0.40 0.45 0.53 0.60 0.67 0.73 0.78 0.76 0.82 0.86 0.83 0.71 0.65 0.67 0.67 0.71 0.78 0.83 0.77 0.60 0.52 0.60 0.70 0.76 0.71 0.73 0.73 0.69 0.76 0.79 0.89 1.02 1.05 0.90 0.66
0.24 0.38 0.57 0.63 0.68 0.73 0.77 0.82 0.86 0.80 0.74 0.73 0.75 0.75 0.70 0.66 0.63 0.60 0.66 0.68 0.74 0.74 0.65 0.55 0.53 0.56 0.55 0.57 0.66 0.69 0.69 0.76 0.86 0.93 1.04 1.18 1.13 0.86
0.29 0.50 0.61 0.64 0.69 0.69 0.69 0.74 0.80 0.79 0.72 0.67 0.68 0.68 0.67 0.63 0.62 0.57 0.58 0.67 0.73 0.68 0.62 0.54 0.50 0.50 0.50 0.47 0.54 0.63 0.68 0.83 0.93 0.94 0.90 1.03 1.23 1.08
0.43 0.56 0.58 0.61 0.64 0.60 0.60 0.65 0.69 0.68 0.62 0.59 0.58 0.56 0.54 0.54 0.57 0.57 0.55 0.55 0.56 0.52 0.49 0.43 0.42 0.48 0.53 0.59 0.60 0.72 0.78 0.83 0.87 0.87 0.87 0.94 1.14 1.11
0.52 0.55 0.55 0.55 0.56 0.56 0.56 0.55 0.52 0.48 0.44 0.46 0.49 0.49 0.47 0.48 0.50 0.52 0.47 0.44 0.46 0.45 0.42 0.40 0.37 0.40 0.48 0.55 0.74 0.87 0.83 0.71 0.71 0.82 0.93 0.97 1.06 1.07
0.47 0.48 0.48 0.47 0.47 0.53 0.51 0.45 0.42 0.39 0.36 0.35 0.37 0.41 0.42 0.41 0.43 0.41 0.36 0.30 0.33 0.37 0.40 0.40 0.36 0.31 0.34 0.40 0.57 0.77 0.81 0.87 0.82 0.82 0.87 0.89 0.79 0.68
0.39 0.40 0.38 0.36 0.39 0.40 0.36 0.35 0.34 0.35 0.31 0.27 0.27 0.28 0.31 0.34 0.34 0.32 0.29 0.28 0.30 0.30 0.32 0.35 0.33 0.31 0.33 0.41 0.56 0.71 0.73 0.65 0.63 0.68 0.72 0.61 0.49 0.51
0.37 0.35 0.33 0.31 0.30 0.30 0.29 0.31 0.30 0.29 0.27 0.27 0.26 0.25 0.25 0.26 0.24 0.22 0.22 0.20 0.20 0.21 0.23 0.26 0.27 0.27 0.29 0.32 0.38 0.44 0.43 0.37 0.30 0.30 0.44 0.56 0.53 0.56

GEFSNE_prec_meanprecacc_180.txt.gz
Total_Precipitation_Accumulation
1.26 1.37 1.49 1.52 1.55 1.63 1.74 1.84 1.90 1.85 1.66 1.51 1.51 1.52 1.52 1.55 1.71 1.37 1.28 1.47 1.38 1.32 1.28 1.21 1.14 1.11 1.08 1.12 1.18 1.25 1.31 1.34 1.37 1.42 1.49 1.59 1.65 1.71
0.98 1.06 1.17 1.27 1.36 1.45 1.59 1.68 1.71 1.71 1.66 1.50 1.44 1.45 1.43 1.40 1.54 1.20 1.18 1.35 1.23 1.15 1.09 1.07 1.04 1.02 0.98 0.98 1.03 1.07 1.07 1.06 1.09 1.08 1.08 1.13 1.24 1.37
0.98 1.03 1.07 1.11 1.17 1.22 1.28 1.36 1.48 1.57 1.67 1.64 1.48 1.43 1.43 1.40 1.33 1.14 1.05 1.01 1.04 1.09 1.03 0.99 0.93 0.89 0.87 0.84 0.79 0.79 0.80 0.82 0.85 0.87 0.86 0.89 0.94 1.01
0.88 0.91 0.91 0.92 0.97 1.04 1.11 1.14 1.22 1.33 1.45 1.55 1.47 1.34 1.30 1.29 1.24 1.16 1.00 0.89 0.88 0.92 0.86 0.81 0.80 0.77 0.73 0.70 0.69 0.67 0.65 0.65 0.67 0.71 0.72 0.74 0.79 0.86
0.74 0.75 0.77 0.80 0.81 0.85 0.88 0.94 1.00 1.05 1.17 1.23 1.24 1.18 1.14 1.08 1.10 1.08 0.97 0.97 0.84 0.83 0.74 0.67 0.64 0.61 0.59 0.55 0.56 0.61 0.62 0.57 0.53 0.52 0.52 0.56 0.60 0.63
0.56 0.58 0.64 0.71 0.71 0.73 0.72 0.75 0.81 0.89 0.98 1.05 1.05 1.04 1.02 0.95 0.97 1.01 0.98 0.91 0.81 0.66 0.67 0.59 0.53 0.48 0.48 0.48 0.46 0.45 0.47 0.53 0.57 0.51 0.42 0.39 0.38 0.37
0.45 0.44 0.45 0.51 0.58 0.58 0.56 0.63 0.73 0.83 0.87 0.92 0.89 0.84 0.84 0.88 0.89 0.86 0.83 0.79 0.74 0.64 0.66 0.61 0.58 0.56 0.58 0.54 0.49 0.44 0.43 0.41 0.40 0.40 0.39 0.35 0.33 0.29
0.43 0.44 0.41 0.42 0.43 0.43 0.47 0.60 0.74 0.77 0.80 0.86 0.84 0.83 0.82 0.81 0.82 0.82 0.85 0.86 0.85 0.70 0.68 0.63 0.58 0.62 0.60 0.56 0.52 0.45 0.41 0.42 0.39 0.35 0.35 0.33 0.32 0.32
0.41 0.41 0.36 0.35 0.39 0.41 0.46 0.53 0.60 0.62 0.68 0.80 0.89 0.87 0.87 0.88 0.90 0.86 0.90 0.93 0.89 0.79 0.84 0.79 0.61 0.56 0.46 0.42 0.44 0.38 0.38 0.42 0.40 0.36 0.35 0.35 0.33 0.32
0.41 0.42 0.44 0.43 0.42 0.44 0.45 0.48 0.57 0.63 0.65 0.67 0.81 0.81 0.77 0.80 0.84 0.87 0.91 0.91 0.89 0.85 0.91 0.93 0.67 0.58 0.46 0.51 0.47 0.35 0.31 0.32 0.36 0.36 0.35 0.34 0.34 0.35
0.35 0.33 0.37 0.41 0.43 0.42 0.45 0.56 0.62 0.67 0.56 0.57 0.66 0.72 0.74 0.76 0.73 0.77 0.94 1.07 1.03 0.84 0.83 0.91 0.76 0.65 0.55 0.55 0.50 0.42 0.34 0.30 0.28 0.29 0.32 0.35 0.36 0.38
0.36 0.34 0.32 0.33 0.34 0.35 0.44 0.57 0.68 0.68 0.60 0.62 0.76 0.85 0.83 0.89 0.84 0.85 1.05 1.11 1.05 1.00 0.85 0.87 0.84 0.81 0.77 0.59 0.54 0.51 0.48 0.42 0.33 0.30 0.28 0.30 0.39 0.44
0.40 0.41 0.37 0.27 0.25 0.28 0.37 0.48 0.57 0.54 0.63 0.79 0.87 0.89 0.92 0.96 0.91 0.86 0.96 1.03 1.09 1.14 0.93 0.93 0.94 0.94 0.95 0.75 0.55 0.52 0.54 0.56 0.56 0.56 0.50 0.41 0.39 0.41
0.43 0.41 0.37 0.29 0.27 0.30 0.36 0.45 0.48 0.55 0.73 0.89 0.94 0.94 0.87 0.86 0.86 0.81 0.86 0.88 0.94 0.96 0.89 0.91 1.02 1.05 0.98 0.83 0.66 0.54 0.56 0.64 0.75 0.83 0.80 0.70 0.56 0.52
0.32 0.29 0.28 0.30 0.33 0.45 0.46 0.46 0.55 0.74 0.86 0.90 0.96 0.97 0.87 0.78 0.73 0.68 0.72 0.82 0.84 0.75 0.63 0.66 0.84 0.87 0.90 0.87 0.79 0.70 0.67 0.68 0.81 0.95 0.98 0.91 0.78 0.66
0.30 0.30 0.35 0.42 0.47 0.55 0.62 0.70 0.75 0.80 0.80 0.86 0.89 0.86 0.75 0.70 0.71 0.69 0.73 0.80 0.86 0.79 0.62 0.55 0.64 0.74 0.80 0.75 0.77 0.77 0.74 0.81 0.85 0.95 1.08 1.12 0.96 0.72
0.25 0.39 0.58 0.64 0.70 0.75 0.79 0.84 0.88 0.83 0.77 0.77 0.79 0.78 0.74 0.70 0.68 0.64 0.69 0.73 0.78 0.77 0.67 0.57 0.56 0.59 0.58 0.60 0.70 0.73 0.74 0.81 0.91 0.98 1.09 1.23 1.19 0.91
0.30 0.51 0.62 0.66 0.71 0.72 0.72 0.77 0.82 0.82 0.75 0.70 0.71 0.71 0.70 0.67 0.67 0.62 0.62 0.71 0.77 0.70 0.64 0.57 0.53 0.53 0.53 0.50 0.57 0.67 0.73 0.88 0.98 0.98 0.95 1.07 1.26 1.12
0.46 0.58 0.61 0.64 0.68 0.63 0.63 0.68 0.72 0.71 0.64 0.61 0.61 0.59 0.57 0.57 0.61 0.61 0.59 0.59 0.58 0.54 0.52 0.46 0.47 0.54 0.58 0.62 0.63 0.75 0.81 0.87 0.93 0.92 0.90 0.98 1.18 1.15
0.55 0.58 0.59 0.59 0.60 0.60 0.58 0.58 0.56 0.51 0.47 0.49 0.53 0.53 0.52 0.53 0.54 0.55 0.49 0.46 0.49 0.47 0.45 0.43 0.42 0.47 0.54 0.59 0.77 0.90 0.87 0.75 0.76 0.88 0.98 1.01 1.11 1.11
0.50 0.51 0.51 0.50 0.50 0.55 0.53 0.47 0.44 0.42 0.39 0.38 0.41 0.45 0.46 0.45 0.47 0.44 0.38 0.31 0.35 0.39 0.41 0.42 0.39 0.36 0.38 0.44 0.61 0.80 0.85 0.89 0.86 0.88 0.94 0.94 0.83 0.72
0.41 0.43 0.41 0.39 0.41 0.42 0.38 0.37 0.36 0.37 0.33 0.31 0.31 0.32 0.34 0.36 0.36 0.34 0.30 0.29 0.31 0.32 0.35 0.37 0.35 0.33 0.36 0.45 0.60 0.75 0.76 0.68 0.66 0.73 0.77 0.67 0.55 0.55
0.39 0.38 0.35 0.33 0.32 0.31 0.31 0.33 0.32 0.32 0.31 0.31 0.29 0.27 0.27 0.28 0.25 0.23 0.22 0.20 0.21 0.22 0.25 0.29 0.30 0.30 0.32 0.34 0.40 0.46 0.45 0.39 0.33 0.34 0.47 0.59 0.59 0.62

GEFSNE_prec_meanprecacc_186.txt.gz
Total_Precipitation_Accumulation
1.28 1.40 1.53 1.56 1.59 1.66 1.77 1.88 1.94 1.88 1.68 1.53 1.54 1.54 1.55 1.59 1.76 1.43 1.33 1.53 1.43 1.36 1.31 1.24 1.16 1.13 1.12 1.17 1.24 1.32 1.40 1.45 1.48 1.51 1.57 1.68 1.75 1.82
1.02 1.11 1.22 1.32 1.40 1.48 1.61 1.70 1.74 1.74 1.70 1.53 1.47 1.47 1.46 1.44 1.59 1.27 1.25 1.44 1.32 1.22 1.15 1.11 1.08 1.07 1.03 1.05 1.11 1.14 1.14 1.14 1.17 1.15 1.14 1.19 1.31 1.46
1.02 1.07 1.12 1.15 1.21 1.25 1.30 1.38 1.50 1.60 1.70 1.67 1.52 1.47 1.46 1.43 1.37 1.18 1.10 1.07 1.10 1.17 1.11 1.05 0.98 0.95 0.94 0.91 0.87 0.88 0.88 0.88 0.92 0.94 0.93 0.96 1.00 1.07
0.91 0.95 0.96 0.96 0.99 1.06 1.14 1.17 1.25 1.36 1.49 1.58 1.50 1.38 1.35 1.34 1.28 1.20 1.04 0.94 0.93 0.98 0.93 0.86 0.84 0.81 0.77 0.76 0.76 0.74 0.72 0.73 0.74 0.77 0.78 0.80 0.85 0.90
0.77 0.78 0.80 0.85 0.85 0.86 0.90 0.96 1.02 1.08 1.21 1.26 1.27 1.22 1.18 1.13 1.16 1.12 1.02 1.02 0.88 0.87 0.80 0.73 0.69 0.66 0.62 0.58 0.61 0.65 0.66 0.62 0.59 0.59 0.59 0.62 0.64 0.67
0.59 0.61 0.68 0.75 0.74 0.75 0.74 0.76 0.82 0.91 1.01 1.08 1.08 1.08 1.06 1.00 1.02 1.06 1.03 0.96 0.87 0.72 0.73 0.63 0.57 0.51 0.51 0.51 0.49 0.48 0.50 0.57 0.62 0.58 0.50 0.44 0.42 0.42
0.48 0.47 0.49 0.57 0.63 0.61 0.58 0.64 0.75 0.85 0.90 0.95 0.92 0.88 0.88 0.92 0.93 0.89 0.86 0.83 0.79 0.69 0.73 0.65 0.61 0.58 0.60 0.57 0.52 0.47 0.46 0.44 0.44 0.46 0.45 0.40 0.36 0.33
0.47 0.48 0.45 0.46 0.46 0.45 0.49 0.61 0.75 0.78 0.82 0.88 0.87 0.87 0.86 0.85 0.85 0.85 0.87 0.89 0.90 0.75 0.73 0.67 0.61 0.65 0.63 0.59 0.54 0.48 0.44 0.45 0.42 0.39 0.40 0.39 0.37 0.36
0.46 0.46 0.40 0.38 0.42 0.43 0.47 0.54 0.61 0.63 0.70 0.82 0.91 0.89 0.90 0.92 0.94 0.89 0.94 0.98 0.94 0.83 0.88 0.84 0.65 0.60 0.49 0.45 0.46 0.41 0.41 0.44 0.44 0.40 0.40 0.40 0.38 0.37
0.45 0.46 0.48 0.47 0.44 0.46 0.46 0.50 0.59 0.65 0.66 0.69 0.83 0.82 0.79 0.84 0.88 0.92 0.96 0.97 0.94 0.88 0.94 0.96 0.70 0.61 0.49 0.53 0.50 0.37 0.33 0.35 0.39 0.39 0.38 0.37 0.37 0.38
0.37 0.36 0.39 0.44 0.45 0.43 0.47 0.58 0.65 0.70 0.59 0.60 0.68 0.75 0.78 0.82 0.80 0.84 1.00 1.13 1.07 0.86 0.85 0.95 0.79 0.68 0.58 0.57 0.52 0.44 0.36 0.33 0.31 0.33 0.36 0.40 0.40 0.42
0.38 0.36 0.36 0.37 0.37 0.38 0.47 0.61 0.71 0.71 0.63 0.66 0.80 0.90 0.88 0.95 0.90 0.90 1.11 1.18 1.11 1.04 0.87 0.91 0.87 0.85 0.80 0.62 0.57 0.53 0.50 0.44 0.36 0.33 0.32 0.35 0.44 0.49
0.41 0.43 0.39 0.31 0.28 0.31 0.41 0.52 0.61 0.59 0.69 0.86 0.94 0.96 0.97 1.00 0.95 0.89 1.00 1.08 1.15 1.18 0.96 0.95 0.97 0.97 0.99 0.79 0.59 0.56 0.58 0.59 0.59 0.59 0.53 0.45 0.44 0.45
0.45 0.43 0.39 0.31 0.29 0.33 0.40 0.48 0.52 0.60 0.79 0.96 1.02 1.00 0.92 0.89 0.88 0.83 0.89 0.92 0.97 0.99 0.91 0.93 1.05 1.09 1.02 0.86 0.70 0.57 0.60 0.68 0.79 0.87 0.84 0.75 0.61 0.57
0.34 0.31 0.29 0.31 0.34 0.46 0.49 0.48 0.57 0.78 0.90 0.95 1.02 1.01 0.91 0.82 0.77 0.72 0.76 0.85 0.86 0.77 0.64 0.67 0.86 0.90 0.94 0.90 0.82 0.73 0.71 0.72 0.85 1.00 1.03 0.96 0.83 0.70
0.31 0.31 0.36 0.43 0.47 0.55 0.63 0.72 0.77 0.83 0.83 0.90 0.94 0.90 0.79 0.73 0.75 0.73 0.77 0.84 0.89 0.82 0.64 0.57 0.66 0.77 0.84 0.78 0.80 0.80 0.77 0.85 0.88 0.99 1.12 1.16 1.00 0.75
0.25 0.39 0.59 0.65 0.71 0.76 0.81 0.86 0.92 0.86 0.81 0.81 0.83 0.82 0.77 0.74 0.72 0.68 0.73 0.77 0.82 0.81 0.70 0.60 0.59 0.63 0.62 0.63 0.72 0.76 0.77 0.85 0.95 1.03 1.14 1.28 1.24 0.96
0.30 0.51 0.63 0.67 0.73 0.74 0.74 0.79 0.85 0.86 0.79 0.75 0.75 0.75 0.74 0.71 0.72 0.66 0.65 0.74 0.80 0.73 0.68 0.61 0.57 0.57 0.57 0.53 0.61 0.72 0.77 0.92 1.03 1.03 1.00 1.13 1.31 1.18
0.46 0.59 0.62 0.66 0.69 0.65 0.65 0.71 0.75 0.74 0.67 0.64 0.63 0.61 0.60 0.60 0.65 0.67 0.63 0.63 0.63 0.58 0.56 0.51 0.53 0.59 0.62 0.66 0.67 0.81 0.87 0.93 0.98 0.97 0.96 1.04 1.23 1.19
0.56 0.59 0.60 0.61 0.63 0.62 0.61 0.61 0.59 0.53 0.48 0.50 0.54 0.54 0.54 0.56 0.58 0.59 0.54 0.50 0.53 0.53 0.51 0.50 0.52 0.55 0.60 0.65 0.83 0.98 0.94 0.82 0.82 0.94 1.03 1.07 1.16 1.16
0.50 0.52 0.53 0.52 0.53 0.58 0.57 0.51 0.47 0.43 0.39 0.39 0.43 0.47 0.49 0.48 0.50 0.48 0.42 0.36 0.39 0.44 0.45 0.46 0.45 0.44 0.45 0.49 0.66 0.86 0.91 0.96 0.92 0.94 0.98 0.98 0.87 0.75
0.41 0.43 0.42 0.41 0.43 0.45 0.43 0.40 0.38 0.38 0.35 0.33 0.34 0.34 0.36 0.39 0.40 0.38 0.35 0.33 0.35 0.35 0.37 0.38 0.38 0.37 0.40 0.49 0.65 0.80 0.82 0.74 0.71 0.78 0.83 0.71 0.58 0.59
0.39 0.38 0.35 0.33 0.33 0.34 0.34 0.35 0.34 0.34 0.33 0.34 0.32 0.29 0.29 0.29 0.28 0.27 0.26 0.24 0.23 0.24 0.27 0.30 0.32 0.32 0.34 0.37 0.43 0.50 0.49 0.44 0.38 0.39 0.52 0.64 0.63 0.66

GEFSNE_prec_meanprecacc_192.txt.gz
Total_Precipitation_Accumulation
1.34 1.46 1.59 1.62 1.65 1.73 1.83 1.93 1.99 1.92 1.72 1.57 1.58 1.58 1.59 1.62 1.80 1.46 1.37 1.57 1.46 1.39 1.34 1.26 1.20 1.17 1.15 1.20 1.26 1.34 1.42 1.48 1.53 1.58 1.65 1.78 1.88 1.96
1.06 1.15 1.28 1.38 1.46 1.54 1.66 1.76 1.80 1.79 1.74 1.57 1.51 1.51 1.50 1.46 1.62 1.30 1.29 1.48 1.36 1.27 1.20 1.16 1.13 1.11 1.07 1.09 1.15 1.17 1.17 1.16 1.20 1.20 1.21 1.26 1.38 1.55
1.07 1.12 1.18 1.22 1.31 1.35 1.37 1.44 1.56 1.66 1.75 1.71 1.56 1.50 1.50 1.47 1.41 1.22 1.14 1.11 1.15 1.21 1.16 1.11 1.04 1.01 1.00 0.97 0.93 0.93 0.92 0.92 0.96 0.99 0.98 1.02 1.06 1.14
0.95 1.00 1.01 1.02 1.07 1.17 1.24 1.24 1.31 1.42 1.54 1.62 1.54 1.42 1.38 1.38 1.33 1.26 1.07 0.97 0.96 1.01 0.96 0.91 0.90 0.86 0.82 0.81 0.80 0.78 0.76 0.77 0.79 0.83 0.84 0.87 0.90 0.96
0.80 0.82 0.84 0.88 0.89 0.93 0.99 1.04 1.08 1.13 1.25 1.30 1.30 1.26 1.21 1.17 1.20 1.17 1.05 1.06 0.91 0.91 0.83 0.77 0.73 0.70 0.66 0.62 0.63 0.67 0.68 0.64 0.62 0.63 0.65 0.69 0.71 0.74
0.61 0.64 0.71 0.79 0.78 0.80 0.80 0.84 0.89 0.98 1.07 1.13 1.12 1.12 1.11 1.04 1.06 1.10 1.07 1.00 0.91 0.75 0.76 0.67 0.61 0.55 0.54 0.54 0.52 0.50 0.52 0.58 0.65 0.64 0.55 0.49 0.49 0.49
0.52 0.51 0.53 0.62 0.69 0.67 0.64 0.72 0.83 0.92 0.96 1.01 0.97 0.93 0.92 0.96 0.97 0.93 0.91 0.88 0.84 0.74 0.77 0.69 0.64 0.62 0.63 0.60 0.55 0.49 0.48 0.46 0.48 0.51 0.50 0.44 0.41 0.38
0.55 0.55 0.50 0.51 0.52 0.51 0.53 0.66 0.80 0.83 0.86 0.93 0.92 0.91 0.91 0.91 0.91 0.91 0.93 0.95 0.96 0.80 0.78 0.72 0.65 0.70 0.68 0.64 0.59 0.51 0.46 0.48 0.45 0.42 0.43 0.42 0.41 0.40
0.52 0.51 0.44 0.42 0.47 0.48 0.51 0.56 0.64 0.66 0.73 0.87 0.96 0.93 0.95 0.98 1.01 0.96 1.01 1.06 1.01 0.90 0.94 0.89 0.70 0.65 0.53 0.48 0.50 0.44 0.44 0.46 0.46 0.42 0.42 0.43 0.41 0.41
0.48 0.49 0.51 0.51 0.48 0.48 0.48 0.52 0.62 0.68 0.70 0.74 0.89 0.89 0.85 0.91 0.97 1.02 1.07 1.09 1.04 0.96 1.02 1.03 0.75 0.66 0.53 0.57 0.53 0.40 0.36 0.37 0.41 0.41 0.41 0.40 0.40 0.42
0.40 0.38 0.42 0.47 0.49 0.47 0.50 0.62 0.68 0.74 0.63 0.63 0.73 0.80 0.83 0.88 0.87 0.93 1.11 1.25 1.19 0.96 0.93 1.03 0.85 0.72 0.63 0.62 0.56 0.47 0.40 0.35 0.34 0.36 0.39 0.42 0.43 0.46
0.40 0.39 0.39 0.41 0.42 0.41 0.50 0.64 0.74 0.75 0.67 0.69 0.84 0.94 0.92 0.98 0.94 0.96 1.17 1.25 1.20 1.13 0.94 0.98 0.95 0.91 0.87 0.68 0.61 0.57 0.54 0.47 0.38 0.36 0.35 0.38 0.47 0.51
0.43 0.45 0.42 0.33 0.31 0.34 0.46 0.55 0.63 0.61 0.71 0.88 0.98 1.00 1.01 1.04 0.98 0.92 1.04 1.14 1.22 1.27 1.02 1.01 1.04 1.04 1.07 0.85 0.64 0.60 0.62 0.63 0.62 0.61 0.56 0.47 0.46 0.47
0.46 0.44 0.40 0.32 0.31 0.35 0.44 0.51 0.53 0.62 0.80 0.98 1.06 1.03 0.96 0.93 0.92 0.87 0.92 0.96 1.03 1.05 0.96 0.98 1.12 1.15 1.09 0.92 0.75 0.62 0.65 0.74 0.83 0.91 0.88 0.78 0.64 0.60
0.36 0.33 0.31 0.32 0.35 0.48 0.51 0.51 0.60 0.80 0.92 0.99 1.06 1.06 0.95 0.87 0.82 0.77 0.81 0.91 0.92 0.81 0.68 0.71 0.92 0.97 1.01 0.97 0.89 0.79 0.77 0.78 0.91 1.07 1.10 1.02 0.89 0.76
0.34 0.34 0.39 0.45 0.49 0.58 0.65 0.75 0.80 0.85 0.85 0.93 0.99 0.94 0.82 0.78 0.81 0.79 0.84 0.91 0.95 0.87 0.69 0.62 0.72 0.84 0.91 0.86 0.87 0.87 0.84 0.93 0.95 1.06 1.20 1.24 1.09 0.85
0.27 0.43 0.64 0.69 0.76 0.81 0.84 0.90 0.95 0.89 0.83 0.84 0.87 0.86 0.82 0.79 0.78 0.74 0.80 0.84 0.90 0.89 0.78 0.66 0.66 0.70 0.70 0.72 0.81 0.84 0.85 0.93 1.03 1.11 1.22 1.36 1.31 1.05
0.32 0.54 0.66 0.70 0.76 0.77 0.77 0.82 0.89 0.90 0.83 0.78 0.79 0.79 0.78 0.75 0.76 0.71 0.71 0.80 0.86 0.81 0.77 0.70 0.66 0.68 0.67 0.63 0.70 0.80 0.85 1.00 1.09 1.11 1.09 1.21 1.39 1.26
0.48 0.62 0.64 0.68 0.71 0.67 0.67 0.73 0.77 0.76 0.70 0.67 0.67 0.66 0.64 0.66 0.73 0.74 0.68 0.67 0.67 0.63 0.63 0.60 0.63 0.70 0.73 0.77 0.78 0.88 0.94 1.00 1.07 1.06 1.04 1.12 1.31 1.28
0.57 0.62 0.62 0.62 0.64 0.64 0.63 0.63 0.61 0.55 0.52 0.54 0.59 0.60 0.60 0.61 0.63 0.64 0.58 0.55 0.58 0.58 0.56 0.58 0.62 0.66 0.71 0.75 0.93 1.08 1.01 0.89 0.91 1.04 1.12 1.16 1.26 1.24
0.52 0.53 0.54 0.54 0.55 0.60 0.59 0.53 0.49 0.45 0.42 0.44 0.47 0.52 0.54 0.52 0.54 0.51 0.46 0.39 0.45 0.50 0.52 0.54 0.56 0.55 0.57 0.62 0.79 0.98 1.01 1.04 0.99 1.02 1.08 1.08 0.97 0.86
0.42 0.44 0.43 0.41 0.44 0.47 0.44 0.41 0.40 0.40 0.38 0.36 0.38 0.38 0.39 0.42 0.43 0.41 0.37 0.36 0.40 0.41 0.43 0.45 0.45 0.44 0.49 0.59 0.76 0.90 0.93 0.84 0.81 0.86 0.90 0.79 0.68 0.69
0.40 0.39 0.36 0.34 0.33 0.34 0.35 0.36 0.35 0.35 0.35 0.36 0.35 0.32 0.32 0.32 0.31 0.30 0.30 0.28 0.27 0.28 0.31 0.35 0.36 0.37 0.39 0.42 0.50 0.57 0.56 0.52 0.49 0.50 0.61 0.71 0.70 0.73

GEFSNE_prec_meanprecacc_198.txt.gz
Total_Precipitation_Accumulation
1.41 1.53 1.65 1.67 1.71 1.79 1.90 2.01 2.07 1.98 1.77 1.63 1.64 1.65 1.67 1.71 1.86 1.50 1.42 1.63 1.51 1.42 1.37 1.30 1.24 1.22 1.20 1.25 1.32 1.39 1.47 1.54 1.60 1.65 1.72 1.84 1.94 2.03
1.14 1.22 1.34 1.43 1.52 1.60 1.72 1.82 1.87 1.87 1.81 1.63 1.57 1.58 1.57 1.52 1.67 1.35 1.34 1.53 1.40 1.30 1.22 1.18 1.16 1.15 1.13 1.14 1.20 1.23 1.22 1.21 1.25 1.25 1.26 1.31 1.43 1.60
1.14 1.19 1.25 1.29 1.38 1.42 1.45 1.51 1.63 1.73 1.82 1.76 1.60 1.56 1.58 1.55 1.47 1.28 1.19 1.17 1.20 1.25 1.19 1.13 1.06 1.03 1.03 1.01 0.96 0.97 0.97 0.97 1.00 1.02 1.01 1.06 1.09 1.17
1.02 1.08 1.09 1.10 1.18 1.28 1.35 1.34 1.40 1.50 1.61 1.67 1.58 1.46 1.44 1.45 1.41 1.32 1.12 1.02 1.02 1.06 1.00 0.94 0.92 0.88 0.84 0.83 0.82 0.80 0.79 0.80 0.82 0.86 0.87 0.89 0.93 0.99
0.88 0.89 0.92 0.96 0.97 1.01 1.08 1.14 1.18 1.21 1.34 1.37 1.36 1.31 1.27 1.23 1.27 1.24 1.13 1.13 0.96 0.94 0.86 0.80 0.75 0.72 0.67 0.64 0.66 0.70 0.70 0.66 0.64 0.67 0.69 0.72 0.74 0.77
0.69 0.71 0.78 0.85 0.86 0.87 0.87 0.92 0.97 1.09 1.18 1.22 1.20 1.19 1.18 1.11 1.14 1.17 1.14 1.07 0.96 0.78 0.80 0.70 0.64 0.57 0.56 0.56 0.53 0.52 0.54 0.60 0.67 0.67 0.59 0.53 0.53 0.52
0.60 0.58 0.59 0.68 0.76 0.73 0.68 0.77 0.89 1.00 1.06 1.09 1.04 0.99 0.98 1.03 1.04 1.00 0.97 0.95 0.90 0.80 0.83 0.75 0.69 0.66 0.67 0.63 0.56 0.51 0.50 0.48 0.50 0.53 0.52 0.47 0.45 0.42
0.62 0.62 0.56 0.56 0.57 0.55 0.56 0.69 0.84 0.88 0.92 0.99 0.97 0.97 0.97 0.98 0.99 0.98 1.01 1.02 1.01 0.86 0.84 0.77 0.70 0.75 0.73 0.68 0.63 0.54 0.48 0.49 0.47 0.44 0.45 0.43 0.43 0.43
0.59 0.58 0.50 0.48 0.52 0.53 0.55 0.59 0.67 0.69 0.76 0.90 1.00 0.97 0.99 1.03 1.08 1.03 1.09 1.13 1.08 0.97 1.01 0.94 0.75 0.70 0.58 0.54 0.56 0.49 0.47 0.48 0.47 0.44 0.44 0.45 0.43 0.43
0.55 0.55 0.57 0.56 0.51 0.52 0.52 0.55 0.65 0.72 0.73 0.76 0.93 0.93 0.90 0.95 1.02 1.08 1.14 1.15 1.11 1.04 1.10 1.10 0.82 0.73 0.59 0.63 0.59 0.47 0.42 0.41 0.44 0.43 0.42 0.42 0.43 0.44
0.46 0.43 0.47 0.52 0.52 0.50 0.54 0.66 0.74 0.80 0.67 0.66 0.76 0.83 0.86 0.90 0.90 0.97 1.15 1.30 1.25 1.03 1.01 1.11 0.94 0.81 0.71 0.70 0.64 0.55 0.46 0.42 0.38 0.39 0.42 0.44 0.45 0.48
0.46 0.44 0.41 0.42 0.43 0.43 0.53 0.67 0.78 0.79 0.71 0.72 0.88 0.97 0.95 1.01 0.97 1.00 1.21 1.29 1.24 1.19 1.01 1.05 1.02 0.99 0.95 0.76 0.70 0.66 0.61 0.54 0.44 0.41 0.40 0.41 0.49 0.53
0.47 0.49 0.44 0.33 0.31 0.34 0.47 0.57 0.64 0.63 0.73 0.90 1.00 1.02 1.04 1.08 1.03 0.99 1.12 1.21 1.28 1.32 1.08 1.08 1.10 1.11 1.14 0.92 0.73 0.68 0.69 0.69 0.67 0.67 0.62 0.53 0.49 0.50
0.49 0.47 0.41 0.32 0.31 0.35 0.45 0.52 0.54 0.62 0.81 0.99 1.08 1.06 0.98 0.95 0.96 0.93 1.01 1.06 1.11 1.10 1.00 1.05 1.18 1.22 1.15 0.97 0.82 0.71 0.73 0.80 0.89 0.96 0.93 0.85 0.69 0.64
0.38 0.34 0.32 0.33 0.37 0.49 0.51 0.51 0.61 0.81 0.93 1.01 1.09 1.08 0.98 0.90 0.86 0.81 0.88 0.98 0.99 0.86 0.71 0.76 0.98 1.03 1.07 1.02 0.93 0.86 0.85 0.86 0.98 1.13 1.16 1.09 0.95 0.81
0.36 0.37 0.41 0.46 0.51 0.60 0.67 0.77 0.82 0.87 0.87 0.96 1.02 0.97 0.86 0.81 0.84 0.83 0.89 0.95 1.00 0.92 0.73 0.66 0.77 0.91 0.98 0.91 0.93 0.93 0.91 1.00 1.02 1.13 1.27 1.30 1.16 0.92
0.29 0.46 0.67 0.74 0.80 0.86 0.88 0.93 0.98 0.91 0.85 0.86 0.89 0.90 0.86 0.83 0.82 0.78 0.85 0.88 0.94 0.94 0.82 0.71 0.71 0.76 0.77 0.79 0.87 0.90 0.91 0.99 1.09 1.18 1.30 1.44 1.39 1.13
0.33 0.56 0.69 0.74 0.80 0.81 0.82 0.86 0.92 0.92 0.85 0.81 0.81 0.82 0.81 0.78 0.80 0.75 0.74 0.83 0.90 0.85 0.81 0.74 0.71 0.73 0.74 0.70 0.76 0.85 0.90 1.05 1.15 1.18 1.17 1.29 1.48 1.34
0.50 0.64 0.66 0.71 0.75 0.71 0.70 0.76 0.80 0.79 0.72 0.71 0.70 0.69 0.68 0.69 0.75 0.76 0.71 0.70 0.70 0.67 0.67 0.65 0.69 0.76 0.81 0.85 0.85 0.94 1.00 1.07 1.14 1.13 1.12 1.21 1.40 1.35
0.59 0.64 0.64 0.64 0.67 0.66 0.65 0.65 0.63 0.58 0.54 0.57 0.62 0.64 0.64 0.65 0.66 0.68 0.62 0.58 0.61 0.61 0.59 0.62 0.68 0.74 0.80 0.84 1.02 1.14 1.07 0.95 0.97 1.10 1.19 1.24 1.35 1.32
0.53 0.54 0.55 0.55 0.56 0.61 0.61 0.55 0.51 0.47 0.45 0.46 0.50 0.55 0.57 0.55 0.57 0.55 0.49 0.42 0.48 0.54 0.57 0.59 0.62 0.62 0.65 0.73 0.88 1.03 1.05 1.08 1.04 1.09 1.15 1.16 1.06 0.96
0.43 0.45 0.44 0.42 0.45 0.48 0.47 0.43 0.41 0.42 0.41 0.39 0.40 0.40 0.41 0.44 0.46 0.43 0.40 0.39 0.43 0.45 0.48 0.50 0.51 0.52 0.58 0.70 0.85 0.97 0.98 0.88 0.86 0.92 0.96 0.87 0.76 0.79
0.41 0.39 0.36 0.34 0.34 0.35 0.37 0.38 0.37 0.37 0.37 0.38 0.37 0.34 0.33 0.34 0.33 0.32 0.31 0.30 0.29 0.31 0.36 0.41 0.42 0.44 0.47 0.50 0.58 0.64 0.61 0.57 0.55 0.59 0.69 0.78 0.77 0.80

GEFSNE_prec_meanprecacc_204.txt.gz
Total_Precipitation_Accumulation
1.47 1.58 1.70 1.73 1.77 1.85 1.96 2.06 2.12 2.02 1.80 1.66 1.67 1.67 1.69 1.74 1.89 1.54 1.48 1.71 1.60 1.52 1.45 1.36 1.29 1.27 1.26 1.30 1.36 1.43 1.52 1.60 1.67 1.73 1.81 1.95 2.04 2.11
1.21 1.29 1.40 1.49 1.57 1.66 1.78 1.88 1.93 1.91 1.84 1.66 1.60 1.60 1.59 1.54 1.70 1.38 1.39 1.58 1.47 1.39 1.32 1.26 1.20 1.19 1.17 1.19 1.24 1.26 1.26 1.25 1.29 1.31 1.33 1.40 1.52 1.69
1.22 1.27 1.32 1.37 1.45 1.48 1.50 1.55 1.68 1.79 1.87 1.80 1.63 1.59 1.60 1.56 1.49 1.31 1.22 1.20 1.24 1.30 1.26 1.22 1.14 1.07 1.07 1.05 1.01 1.01 1.00 1.00 1.03 1.06 1.07 1.11 1.17 1.25
1.11 1.16 1.16 1.16 1.23 1.33 1.39 1.38 1.43 1.55 1.67 1.73 1.64 1.51 1.47 1.48 1.44 1.37 1.17 1.06 1.05 1.10 1.04 0.99 0.99 0.94 0.89 0.88 0.87 0.85 0.82 0.83 0.85 0.89 0.91 0.94 0.99 1.05
0.96 0.96 0.97 1.00 1.01 1.05 1.11 1.17 1.21 1.24 1.37 1.42 1.42 1.36 1.32 1.27 1.31 1.30 1.20 1.22 1.04 1.01 0.91 0.83 0.80 0.78 0.73 0.69 0.71 0.75 0.74 0.70 0.67 0.70 0.72 0.76 0.79 0.82
0.76 0.76 0.81 0.89 0.90 0.92 0.90 0.94 1.00 1.11 1.21 1.25 1.23 1.24 1.24 1.16 1.19 1.23 1.21 1.16 1.04 0.87 0.88 0.76 0.68 0.62 0.62 0.62 0.58 0.58 0.60 0.64 0.71 0.69 0.62 0.56 0.56 0.56
0.63 0.61 0.61 0.71 0.80 0.78 0.72 0.81 0.92 1.03 1.09 1.12 1.07 1.01 1.01 1.06 1.07 1.05 1.04 1.04 0.98 0.86 0.90 0.81 0.74 0.70 0.70 0.67 0.61 0.57 0.57 0.53 0.53 0.56 0.54 0.49 0.47 0.45
0.64 0.64 0.58 0.58 0.61 0.59 0.59 0.71 0.86 0.90 0.95 1.02 1.01 1.00 1.00 1.00 1.01 1.02 1.06 1.09 1.10 0.92 0.88 0.81 0.74 0.78 0.76 0.71 0.66 0.56 0.53 0.55 0.50 0.47 0.46 0.45 0.44 0.44
0.61 0.60 0.52 0.49 0.54 0.55 0.56 0.60 0.68 0.70 0.78 0.92 1.02 1.00 1.01 1.05 1.10 1.06 1.12 1.17 1.14 1.04 1.06 0.97 0.78 0.73 0.60 0.56 0.59 0.51 0.49 0.51 0.51 0.47 0.47 0.46 0.44 0.44
0.56 0.56 0.58 0.57 0.53 0.53 0.53 0.56 0.66 0.72 0.74 0.78 0.94 0.95 0.92 0.97 1.04 1.11 1.18 1.19 1.15 1.11 1.16 1.13 0.83 0.75 0.62 0.65 0.61 0.49 0.44 0.43 0.46 0.46 0.45 0.45 0.45 0.47
0.47 0.44 0.48 0.52 0.53 0.51 0.55 0.67 0.75 0.80 0.68 0.68 0.78 0.85 0.87 0.92 0.92 0.99 1.19 1.35 1.30 1.09 1.08 1.15 0.95 0.81 0.72 0.72 0.65 0.56 0.49 0.44 0.40 0.41 0.44 0.47 0.48 0.51
0.47 0.44 0.41 0.42 0.43 0.43 0.54 0.68 0.79 0.79 0.72 0.73 0.88 0.98 0.95 1.02 1.00 1.03 1.25 1.34 1.30 1.26 1.09 1.11 1.04 1.01 0.96 0.77 0.71 0.67 0.63 0.56 0.46 0.43 0.42 0.44 0.52 0.55
0.47 0.49 0.44 0.33 0.31 0.35 0.48 0.57 0.65 0.63 0.73 0.91 1.01 1.02 1.04 1.09 1.05 1.01 1.17 1.26 1.33 1.38 1.15 1.14 1.13 1.13 1.16 0.94 0.74 0.69 0.70 0.71 0.68 0.68 0.65 0.56 0.52 0.52
0.50 0.48 0.42 0.33 0.32 0.36 0.45 0.53 0.54 0.63 0.81 1.00 1.08 1.06 0.99 0.96 0.97 0.95 1.06 1.13 1.17 1.15 1.07 1.10 1.22 1.23 1.16 0.99 0.84 0.73 0.75 0.83 0.91 0.98 0.96 0.88 0.72 0.68
0.38 0.35 0.32 0.34 0.37 0.49 0.52 0.52 0.62 0.82 0.94 1.02 1.10 1.09 0.99 0.92 0.89 0.84 0.92 1.05 1.05 0.90 0.77 0.82 1.02 1.05 1.09 1.04 0.95 0.89 0.89 0.89 1.01 1.16 1.19 1.11 0.98 0.84
0.36 0.37 0.41 0.47 0.52 0.60 0.69 0.79 0.83 0.88 0.88 0.97 1.03 0.98 0.87 0.83 0.86 0.84 0.91 0.99 1.05 0.96 0.77 0.71 0.80 0.93 1.00 0.94 0.95 0.96 0.95 1.04 1.06 1.17 1.30 1.33 1.19 0.94
0.29 0.46 0.68 0.74 0.81 0.87 0.90 0.95 1.00 0.93 0.86 0.87 0.91 0.92 0.88 0.84 0.83 0.80 0.86 0.90 0.99 0.98 0.86 0.75 0.74 0.78 0.79 0.81 0.89 0.92 0.95 1.03 1.14 1.21 1.33 1.47 1.41 1.15
0.33 0.57 0.69 0.74 0.82 0.83 0.84 0.87 0.93 0.93 0.86 0.81 0.82 0.84 0.83 0.80 0.81 0.76 0.76 0.85 0.94 0.89 0.84 0.77 0.74 0.76 0.77 0.73 0.79 0.87 0.93 1.09 1.20 1.23 1.21 1.33 1.51 1.37
0.50 0.65 0.67 0.72 0.76 0.72 0.72 0.77 0.81 0.80 0.73 0.71 0.71 0.71 0.69 0.70 0.76 0.77 0.72 0.72 0.73 0.70 0.69 0.67 0.71 0.78 0.84 0.89 0.90 0.98 1.04 1.11 1.18 1.17 1.17 1.26 1.45 1.40
0.60 0.64 0.65 0.66 0.68 0.68 0.66 0.66 0.64 0.59 0.55 0.57 0.63 0.65 0.65 0.66 0.67 0.69 0.63 0.60 0.64 0.63 0.61 0.65 0.70 0.76 0.83 0.88 1.06 1.19 1.12 0.99 1.01 1.14 1.23 1.27 1.38 1.37
0.53 0.55 0.56 0.56 0.57 0.63 0.62 0.55 0.51 0.48 0.46 0.47 0.51 0.57 0.59 0.57 0.58 0.56 0.51 0.44 0.51 0.56 0.59 0.61 0.65 0.66 0.69 0.76 0.91 1.07 1.09 1.12 1.08 1.12 1.18 1.18 1.09 0.99
0.44 0.46 0.45 0.43 0.46 0.49 0.47 0.44 0.42 0.43 0.42 0.40 0.41 0.41 0.42 0.45 0.47 0.45 0.42 0.41 0.45 0.47 0.50 0.53 0.54 0.55 0.61 0.73 0.87 0.99 1.00 0.91 0.89 0.96 1.00 0.90 0.79 0.81
0.41 0.40 0.37 0.35 0.35 0.36 0.38 0.39 0.38 0.38 0.38 0.40 0.38 0.35 0.34 0.35 0.34 0.33 0.33 0.31 0.31 0.32 0.37 0.43 0.45 0.46 0.49 0.52 0.60 0.66 0.63 0.59 0.57 0.60 0.71 0.80 0.79 0.82

GEFSNE_prec_meanprecacc_210.txt.gz
Total_Precipitation_Accumulation
1.50 1.61 1.72 1.75 1.79 1.88 2.00 2.10 2.15 2.04 1.83 1.67 1.68 1.69 1.71 1.76 1.92 1.55 1.49 1.72 1.61 1.53 1.46 1.37 1.31 1.32 1.35 1.39 1.45 1.52 1.59 1.65 1.71 1.77 1.86 2.02 2.12 2.19
1.23 1.31 1.42 1.51 1.60 1.69 1.82 1.92 1.97 1.94 1.86 1.68 1.62 1.62 1.61 1.56 1.71 1.39 1.39 1.59 1.48 1.40 1.33 1.29 1.23 1.22 1.23 1.27 1.33 1.33 1.31 1.30 1.33 1.35 1.37 1.44 1.60 1.79
1.25 1.29 1.35 1.40 1.47 1.50 1.52 1.58 1.71 1.82 1.90 1.82 1.66 1.62 1.62 1.57 1.50 1.32 1.23 1.21 1.24 1.31 1.27 1.24 1.17 1.12 1.12 1.11 1.08 1.08 1.06 1.04 1.07 1.10 1.10 1.15 1.22 1.31
1.14 1.19 1.19 1.19 1.26 1.35 1.41 1.40 1.46 1.57 1.69 1.75 1.66 1.53 1.49 1.49 1.45 1.39 1.18 1.06 1.06 1.11 1.05 1.01 1.02 0.99 0.95 0.95 0.94 0.91 0.89 0.89 0.90 0.92 0.94 0.97 1.02 1.10
0.98 0.99 1.00 1.03 1.04 1.07 1.13 1.19 1.22 1.25 1.39 1.44 1.43 1.38 1.34 1.28 1.34 1.33 1.22 1.23 1.05 1.02 0.93 0.86 0.83 0.81 0.78 0.75 0.79 0.83 0.81 0.75 0.72 0.73 0.76 0.80 0.83 0.87
0.79 0.78 0.84 0.91 0.93 0.94 0.92 0.96 1.02 1.13 1.22 1.27 1.24 1.25 1.26 1.18 1.21 1.26 1.23 1.17 1.05 0.88 0.91 0.79 0.71 0.65 0.65 0.66 0.65 0.66 0.69 0.72 0.77 0.74 0.66 0.59 0.59 0.59
0.65 0.62 0.63 0.72 0.82 0.79 0.73 0.82 0.93 1.05 1.11 1.13 1.08 1.03 1.02 1.08 1.10 1.07 1.06 1.06 1.00 0.88 0.93 0.84 0.77 0.73 0.73 0.71 0.68 0.63 0.64 0.63 0.65 0.65 0.61 0.53 0.50 0.47
0.65 0.65 0.59 0.60 0.62 0.60 0.60 0.72 0.88 0.92 0.97 1.03 1.02 1.02 1.02 1.02 1.04 1.05 1.09 1.12 1.13 0.95 0.91 0.84 0.77 0.81 0.79 0.75 0.71 0.64 0.60 0.64 0.61 0.57 0.56 0.53 0.50 0.49
0.62 0.61 0.54 0.51 0.57 0.57 0.57 0.62 0.69 0.71 0.79 0.94 1.03 1.01 1.03 1.07 1.12 1.09 1.15 1.20 1.18 1.08 1.10 1.01 0.82 0.77 0.63 0.59 0.63 0.57 0.56 0.59 0.60 0.56 0.54 0.54 0.51 0.50
0.58 0.58 0.59 0.58 0.54 0.55 0.54 0.57 0.66 0.73 0.74 0.79 0.95 0.96 0.93 0.99 1.06 1.14 1.21 1.22 1.18 1.14 1.19 1.19 0.89 0.79 0.65 0.69 0.65 0.53 0.50 0.50 0.53 0.52 0.51 0.50 0.50 0.51
0.48 0.45 0.48 0.53 0.54 0.52 0.55 0.68 0.75 0.81 0.68 0.69 0.78 0.86 0.88 0.93 0.93 1.01 1.21 1.37 1.32 1.12 1.10 1.19 0.99 0.85 0.75 0.74 0.68 0.60 0.52 0.50 0.47 0.48 0.49 0.50 0.52 0.56
0.47 0.44 0.42 0.43 0.43 0.44 0.54 0.69 0.79 0.80 0.72 0.73 0.89 0.98 0.96 1.03 1.01 1.05 1.27 1.36 1.32 1.28 1.11 1.14 1.10 1.07 1.00 0.79 0.73 0.69 0.66 0.59 0.51 0.49 0.48 0.49 0.56 0.59
0.47 0.49 0.44 0.34 0.32 0.35 0.48 0.58 0.65 0.64 0.74 0.91 1.01 1.03 1.05 1.10 1.06 1.03 1.18 1.27 1.35 1.40 1.17 1.17 1.18 1.20 1.22 0.97 0.77 0.72 0.73 0.73 0.72 0.73 0.70 0.62 0.59 0.58
0.50 0.48 0.43 0.33 0.32 0.37 0.46 0.53 0.55 0.63 0.81 1.00 1.08 1.07 0.99 0.97 0.97 0.96 1.08 1.15 1.19 1.18 1.09 1.15 1.28 1.30 1.21 1.01 0.86 0.75 0.77 0.85 0.94 1.01 0.99 0.93 0.79 0.74
0.39 0.36 0.33 0.34 0.38 0.50 0.53 0.53 0.62 0.83 0.94 1.02 1.10 1.09 0.99 0.92 0.89 0.85 0.93 1.07 1.07 0.93 0.80 0.86 1.07 1.11 1.13 1.06 0.97 0.90 0.90 0.91 1.04 1.19 1.23 1.15 1.03 0.91
0.38 0.38 0.42 0.47 0.52 0.61 0.69 0.79 0.84 0.89 0.89 0.98 1.03 0.98 0.88 0.83 0.87 0.86 0.94 1.04 1.08 0.98 0.80 0.75 0.85 0.98 1.05 0.96 0.97 0.97 0.96 1.05 1.08 1.19 1.33 1.37 1.23 0.99
0.30 0.46 0.68 0.74 0.81 0.87 0.90 0.95 1.01 0.94 0.87 0.88 0.91 0.92 0.88 0.85 0.84 0.81 0.88 0.96 1.04 1.01 0.89 0.80 0.80 0.83 0.84 0.83 0.91 0.94 0.97 1.05 1.16 1.24 1.36 1.50 1.44 1.18
0.34 0.57 0.69 0.75 0.82 0.84 0.84 0.88 0.94 0.96 0.88 0.83 0.84 0.84 0.83 0.81 0.82 0.78 0.79 0.91 1.01 0.94 0.89 0.84 0.80 0.81 0.81 0.76 0.81 0.90 0.97 1.12 1.22 1.26 1.24 1.35 1.54 1.40
0.50 0.65 0.67 0.72 0.77 0.73 0.72 0.78 0.82 0.82 0.75 0.73 0.73 0.73 0.72 0.72 0.79 0.80 0.75 0.75 0.77 0.75 0.74 0.73 0.76 0.83 0.87 0.92 0.92 1.01 1.08 1.14 1.21 1.20 1.20 1.29 1.47 1.42
0.60 0.64 0.65 0.66 0.69 0.68 0.67 0.67 0.65 0.61 0.57 0.60 0.67 0.69 0.69 0.69 0.70 0.71 0.65 0.62 0.68 0.68 0.66 0.70 0.74 0.79 0.85 0.90 1.07 1.21 1.15 1.03 1.04 1.17 1.26 1.31 1.42 1.41
0.53 0.55 0.56 0.57 0.58 0.63 0.63 0.57 0.53 0.50 0.48 0.50 0.55 0.61 0.64 0.61 0.62 0.59 0.54 0.47 0.54 0.60 0.63 0.66 0.68 0.68 0.71 0.78 0.93 1.09 1.12 1.15 1.11 1.15 1.20 1.21 1.13 1.04
0.44 0.47 0.45 0.44 0.47 0.49 0.48 0.45 0.43 0.44 0.43 0.43 0.44 0.45 0.46 0.49 0.51 0.48 0.44 0.44 0.49 0.51 0.54 0.57 0.57 0.58 0.64 0.75 0.90 1.03 1.04 0.94 0.93 1.00 1.03 0.93 0.82 0.86
0.42 0.41 0.38 0.35 0.35 0.37 0.38 0.40 0.39 0.39 0.40 0.42 0.41 0.38 0.37 0.37 0.36 0.35 0.36 0.35 0.35 0.37 0.42 0.47 0.48 0.50 0.52 0.55 0.64 0.71 0.68 0.63 0.62 0.64 0.75 0.83 0.83 0.87

GEFSNE_prec_meanprecacc_216.txt.gz
Total_Precipitation_Accumulation
1.55 1.65 1.76 1.79 1.83 1.91 2.03 2.15 2.20 2.09 1.87 1.71 1.72 1.72 1.74 1.78 1.94 1.57 1.52 1.75 1.64 1.55 1.48 1.38 1.32 1.33 1.36 1.40 1.47 1.58 1.67 1.72 1.78 1.82 1.91 2.08 2.18 2.25
1.30 1.38 1.48 1.56 1.65 1.74 1.85 1.95 2.01 1.99 1.91 1.72 1.65 1.66 1.64 1.58 1.72 1.40 1.41 1.60 1.50 1.43 1.35 1.30 1.23 1.23 1.24 1.27 1.34 1.36 1.39 1.39 1.41 1.41 1.41 1.49 1.65 1.85
1.30 1.34 1.39 1.45 1.53 1.55 1.56 1.62 1.75 1.87 1.96 1.88 1.71 1.67 1.66 1.60 1.52 1.33 1.24 1.22 1.26 1.33 1.29 1.26 1.18 1.12 1.13 1.12 1.09 1.10 1.09 1.11 1.15 1.17 1.16 1.20 1.26 1.36
1.18 1.24 1.24 1.23 1.30 1.39 1.44 1.44 1.49 1.60 1.73 1.79 1.69 1.56 1.52 1.51 1.48 1.41 1.19 1.08 1.08 1.13 1.06 1.02 1.03 1.00 0.95 0.95 0.95 0.93 0.90 0.92 0.95 0.99 1.00 1.02 1.07 1.14
1.02 1.03 1.04 1.06 1.07 1.10 1.16 1.21 1.24 1.27 1.41 1.46 1.46 1.41 1.37 1.31 1.36 1.36 1.23 1.25 1.07 1.03 0.94 0.87 0.84 0.82 0.78 0.76 0.80 0.85 0.83 0.78 0.75 0.78 0.81 0.85 0.88 0.92
0.82 0.82 0.87 0.95 0.97 0.98 0.97 1.01 1.05 1.16 1.25 1.29 1.27 1.28 1.29 1.21 1.24 1.30 1.26 1.19 1.07 0.89 0.91 0.80 0.72 0.66 0.65 0.67 0.65 0.67 0.71 0.75 0.81 0.80 0.72 0.65 0.64 0.64
0.67 0.65 0.66 0.77 0.85 0.82 0.76 0.85 0.98 1.10 1.16 1.18 1.12 1.06 1.05 1.12 1.13 1.10 1.10 1.10 1.03 0.90 0.95 0.86 0.78 0.74 0.75 0.72 0.69 0.64 0.65 0.65 0.66 0.67 0.65 0.60 0.57 0.53
0.66 0.67 0.61 0.63 0.65 0.62 0.62 0.74 0.91 0.95 1.01 1.09 1.08 1.07 1.06 1.06 1.07 1.07 1.12 1.17 1.18 0.98 0.96 0.88 0.80 0.84 0.82 0.77 0.73 0.65 0.61 0.66 0.63 0.59 0.59 0.57 0.56 0.55
0.65 0.63 0.55 0.52 0.58 0.58 0.58 0.63 0.71 0.73 0.81 0.97 1.07 1.05 1.07 1.12 1.17 1.13 1.20 1.25 1.23 1.13 1.15 1.08 0.88 0.81 0.67 0.61 0.64 0.58 0.58 0.61 0.64 0.60 0.59 0.59 0.58 0.57
0.61 0.60 0.61 0.59 0.55 0.56 0.55 0.59 0.68 0.75 0.76 0.81 0.98 0.99 0.97 1.04 1.12 1.19 1.27 1.27 1.24 1.20 1.25 1.25 0.96 0.86 0.70 0.73 0.67 0.54 0.52 0.52 0.57 0.57 0.58 0.59 0.60 0.63
0.52 0.47 0.50 0.55 0.55 0.53 0.57 0.69 0.77 0.83 0.70 0.70 0.79 0.87 0.90 0.94 0.96 1.05 1.26 1.42 1.37 1.18 1.16 1.26 1.06 0.93 0.82 0.79 0.72 0.63 0.55 0.52 0.49 0.51 0.53 0.57 0.61 0.67
0.51 0.47 0.44 0.44 0.45 0.45 0.55 0.70 0.81 0.81 0.73 0.74 0.91 1.00 0.98 1.05 1.02 1.07 1.30 1.40 1.35 1.32 1.15 1.19 1.15 1.13 1.07 0.83 0.75 0.72 0.68 0.62 0.54 0.51 0.51 0.52 0.60 0.64
0.49 0.51 0.45 0.34 0.33 0.37 0.50 0.59 0.67 0.65 0.75 0.93 1.03 1.05 1.07 1.13 1.08 1.05 1.21 1.30 1.38 1.43 1.21 1.21 1.22 1.24 1.28 1.03 0.80 0.74 0.76 0.76 0.74 0.75 0.71 0.64 0.62 0.61
0.52 0.50 0.44 0.34 0.33 0.38 0.47 0.54 0.56 0.64 0.82 1.01 1.10 1.09 1.02 0.99 1.00 0.98 1.10 1.17 1.21 1.20 1.12 1.18 1.31 1.34 1.26 1.07 0.90 0.79 0.81 0.88 0.97 1.05 1.02 0.96 0.82 0.77
0.41 0.38 0.35 0.35 0.38 0.50 0.53 0.53 0.63 0.84 0.96 1.04 1.11 1.11 1.01 0.94 0.91 0.87 0.96 1.09 1.09 0.94 0.82 0.89 1.10 1.15 1.19 1.13 1.02 0.95 0.96 0.96 1.08 1.23 1.27 1.19 1.07 0.95
0.40 0.40 0.43 0.47 0.52 0.61 0.69 0.80 0.85 0.91 0.91 0.99 1.04 0.99 0.89 0.85 0.88 0.88 0.96 1.07 1.11 1.01 0.83 0.78 0.89 1.04 1.14 1.06 1.05 1.05 1.04 1.12 1.14 1.25 1.38 1.42 1.28 1.04
0.32 0.47 0.69 0.75 0.82 0.88 0.91 0.96 1.02 0.96 0.90 0.90 0.93 0.94 0.90 0.87 0.86 0.83 0.91 1.00 1.09 1.05 0.94 0.86 0.86 0.90 0.92 0.94 1.00 1.01 1.02 1.10 1.21 1.29 1.42 1.55 1.51 1.24
0.35 0.58 0.70 0.76 0.83 0.85 0.85 0.89 0.96 0.99 0.91 0.85 0.86 0.86 0.85 0.83 0.85 0.81 0.82 0.96 1.06 0.99 0.93 0.88 0.84 0.86 0.88 0.85 0.87 0.94 1.00 1.15 1.27 1.32 1.30 1.41 1.60 1.46
0.51 0.66 0.69 0.74 0.79 0.74 0.74 0.79 0.84 0.85 0.78 0.76 0.76 0.75 0.74 0.75 0.82 0.82 0.77 0.78 0.82 0.79 0.77 0.76 0.79 0.87 0.93 1.01 0.98 1.03 1.10 1.17 1.25 1.27 1.29 1.34 1.52 1.48
0.61 0.66 0.67 0.67 0.71 0.70 0.68 0.68 0.67 0.63 0.60 0.63 0.70 0.72 0.71 0.71 0.71 0.73 0.67 0.65 0.71 0.72 0.71 0.74 0.78 0.84 0.92 0.98 1.14 1.25 1.18 1.06 1.08 1.23 1.35 1.38 1.47 1.46
0.56 0.58 0.59 0.60 0.61 0.66 0.65 0.58 0.54 0.52 0.50 0.52 0.57 0.63 0.65 0.63 0.63 0.61 0.55 0.49 0.57 0.63 0.66 0.69 0.71 0.72 0.77 0.84 0.98 1.14 1.16 1.17 1.14 1.19 1.27 1.28 1.19 1.10
0.48 0.49 0.48 0.46 0.49 0.51 0.49 0.46 0.44 0.45 0.45 0.45 0.48 0.47 0.48 0.51 0.52 0.49 0.46 0.46 0.52 0.54 0.57 0.60 0.60 0.64 0.71 0.81 0.94 1.06 1.07 0.97 0.95 1.04 1.08 0.98 0.86 0.90
0.44 0.42 0.39 0.37 0.37 0.38 0.40 0.41 0.40 0.41 0.42 0.45 0.44 0.41 0.40 0.39 0.38 0.38 0.39 0.38 0.38 0.40 0.45 0.50 0.53 0.58 0.60 0.61 0.68 0.74 0.72 0.67 0.65 0.68 0.80 0.88 0.87 0.89

GEFSNE_prec_meanprecacc_222.txt.gz
Total_Precipitation_Accumulation
1.62 1.73 1.84 1.86 1.91 2.00 2.13 2.24 2.28 2.15 1.94 1.79 1.78 1.77 1.79 1.84 2.00 1.63 1.57 1.80 1.67 1.57 1.50 1.40 1.34 1.36 1.38 1.42 1.48 1.59 1.69 1.75 1.82 1.87 1.96 2.13 2.23 2.31
1.36 1.45 1.56 1.64 1.74 1.83 1.96 2.04 2.10 2.06 1.98 1.77 1.70 1.71 1.70 1.64 1.79 1.46 1.46 1.64 1.53 1.44 1.37 1.31 1.25 1.25 1.25 1.28 1.35 1.37 1.39 1.40 1.42 1.45 1.46 1.53 1.69 1.89
1.36 1.40 1.46 1.53 1.61 1.63 1.65 1.71 1.84 1.95 2.04 1.95 1.77 1.73 1.73 1.67 1.57 1.37 1.28 1.25 1.28 1.35 1.30 1.27 1.20 1.14 1.15 1.13 1.10 1.10 1.10 1.12 1.17 1.19 1.19 1.24 1.29 1.39
1.25 1.30 1.30 1.29 1.36 1.47 1.53 1.52 1.57 1.68 1.81 1.87 1.75 1.61 1.58 1.57 1.53 1.45 1.22 1.10 1.10 1.14 1.08 1.04 1.05 1.02 0.97 0.97 0.97 0.94 0.91 0.93 0.97 1.01 1.03 1.06 1.11 1.17
1.09 1.10 1.10 1.13 1.12 1.17 1.25 1.30 1.32 1.34 1.48 1.54 1.52 1.47 1.42 1.36 1.42 1.41 1.28 1.29 1.09 1.05 0.96 0.88 0.85 0.84 0.81 0.78 0.81 0.86 0.84 0.78 0.76 0.80 0.83 0.88 0.91 0.95
0.87 0.86 0.92 1.01 1.03 1.05 1.04 1.08 1.11 1.21 1.30 1.35 1.32 1.32 1.34 1.26 1.29 1.35 1.31 1.24 1.11 0.91 0.93 0.81 0.73 0.67 0.67 0.69 0.67 0.68 0.72 0.76 0.82 0.81 0.74 0.67 0.67 0.67
0.70 0.68 0.69 0.81 0.90 0.86 0.80 0.89 1.01 1.14 1.21 1.23 1.16 1.11 1.11 1.18 1.18 1.15 1.15 1.16 1.08 0.94 0.98 0.88 0.80 0.76 0.76 0.74 0.70 0.65 0.66 0.66 0.67 0.68 0.66 0.62 0.59 0.56
0.70 0.71 0.64 0.67 0.70 0.67 0.65 0.77 0.93 0.97 1.03 1.12 1.11 1.11 1.11 1.12 1.13 1.12 1.18 1.23 1.23 1.03 1.01 0.92 0.84 0.87 0.85 0.80 0.74 0.66 0.62 0.66 0.64 0.60 0.60 0.58 0.58 0.58
0.69 0.68 0.59 0.56 0.61 0.62 0.63 0.66 0.73 0.74 0.83 1.00 1.11 1.09 1.11 1.17 1.23 1.18 1.26 1.31 1.28 1.17 1.21 1.13 0.94 0.87 0.71 0.63 0.66 0.59 0.58 0.62 0.64 0.61 0.60 0.60 0.60 0.60
0.66 0.66 0.67 0.64 0.59 0.60 0.59 0.62 0.70 0.76 0.78 0.82 1.01 1.02 0.99 1.07 1.16 1.23 1.32 1.33 1.30 1.24 1.31 1.31 1.02 0.93 0.75 0.77 0.70 0.56 0.52 0.53 0.58 0.59 0.60 0.60 0.62 0.65
0.59 0.54 0.56 0.60 0.60 0.58 0.61 0.72 0.79 0.85 0.71 0.71 0.81 0.89 0.91 0.96 0.98 1.08 1.30 1.47 1.42 1.22 1.21 1.31 1.11 1.00 0.88 0.85 0.76 0.66 0.56 0.53 0.50 0.52 0.55 0.59 0.63 0.70
0.58 0.55 0.50 0.50 0.51 0.52 0.60 0.74 0.83 0.83 0.75 0.76 0.92 1.01 0.99 1.06 1.03 1.09 1.34 1.44 1.39 1.35 1.19 1.23 1.20 1.19 1.14 0.89 0.80 0.75 0.70 0.64 0.55 0.52 0.52 0.54 0.63 0.67
0.55 0.59 0.53 0.43 0.40 0.42 0.54 0.62 0.69 0.67 0.78 0.95 1.05 1.07 1.09 1.14 1.10 1.08 1.24 1.34 1.41 1.46 1.23 1.25 1.27 1.30 1.35 1.09 0.86 0.79 0.79 0.79 0.77 0.76 0.73 0.66 0.64 0.64
0.58 0.59 0.51 0.41 0.38 0.39 0.48 0.55 0.57 0.66 0.85 1.04 1.13 1.11 1.03 1.01 1.02 1.01 1.14 1.21 1.25 1.23 1.15 1.22 1.36 1.39 1.32 1.13 0.97 0.85 0.85 0.92 1.00 1.08 1.05 0.98 0.85 0.80
0.47 0.44 0.39 0.39 0.40 0.52 0.54 0.55 0.65 0.86 0.98 1.06 1.13 1.13 1.03 0.96 0.94 0.90 1.00 1.14 1.13 0.97 0.84 0.92 1.15 1.20 1.24 1.19 1.09 1.02 1.01 1.02 1.13 1.28 1.31 1.23 1.11 0.98
0.44 0.43 0.46 0.50 0.54 0.63 0.71 0.82 0.86 0.92 0.93 1.01 1.06 1.01 0.91 0.87 0.91 0.91 1.01 1.11 1.15 1.04 0.86 0.81 0.93 1.08 1.18 1.11 1.12 1.12 1.10 1.18 1.20 1.31 1.44 1.48 1.33 1.08
0.35 0.51 0.71 0.77 0.84 0.91 0.93 0.99 1.05 0.99 0.92 0.93 0.96 0.97 0.93 0.91 0.90 0.87 0.96 1.05 1.14 1.10 0.98 0.90 0.90 0.95 0.97 0.99 1.05 1.06 1.07 1.15 1.26 1.34 1.48 1.61 1.56 1.29
0.37 0.61 0.73 0.80 0.87 0.89 0.90 0.94 1.01 1.04 0.97 0.91 0.92 0.93 0.92 0.89 0.91 0.87 0.88 1.01 1.11 1.02 0.96 0.91 0.87 0.90 0.92 0.89 0.91 0.98 1.04 1.18 1.30 1.36 1.35 1.46 1.65 1.50
0.54 0.70 0.74 0.79 0.84 0.80 0.79 0.84 0.88 0.90 0.83 0.81 0.80 0.80 0.79 0.80 0.86 0.87 0.81 0.82 0.85 0.82 0.79 0.78 0.82 0.90 0.97 1.04 1.01 1.06 1.14 1.21 1.29 1.30 1.33 1.40 1.57 1.51
0.64 0.69 0.70 0.71 0.75 0.74 0.72 0.73 0.72 0.67 0.64 0.66 0.73 0.75 0.75 0.75 0.75 0.76 0.70 0.68 0.74 0.75 0.73 0.77 0.81 0.88 0.96 1.01 1.17 1.28 1.20 1.09 1.12 1.26 1.39 1.44 1.54 1.51
0.59 0.61 0.63 0.65 0.65 0.70 0.69 0.63 0.59 0.56 0.54 0.55 0.59 0.65 0.68 0.66 0.67 0.63 0.58 0.52 0.60 0.66 0.69 0.72 0.73 0.75 0.80 0.87 1.02 1.17 1.20 1.21 1.17 1.23 1.31 1.33 1.25 1.17
0.50 0.52 0.51 0.49 0.52 0.54 0.52 0.49 0.48 0.49 0.48 0.48 0.51 0.51 0.51 0.54 0.56 0.53 0.50 0.49 0.55 0.56 0.59 0.62 0.63 0.67 0.75 0.85 0.98 1.11 1.14 1.03 0.99 1.07 1.12 1.03 0.92 0.96
0.47 0.45 0.42 0.39 0.39 0.41 0.42 0.43 0.43 0.44 0.45 0.47 0.47 0.43 0.42 0.43 0.42 0.41 0.42 0.41 0.42 0.42 0.47 0.53 0.56 0.62 0.65 0.66 0.73 0.79 0.78 0.73 0.68 0.72 0.85 0.94 0.94 0.95

GEFSNE_prec_meanprecacc_228.txt.gz
Total_Precipitation_Accumulation
1.67 1.77 1.88 1.89 1.95 2.04 2.18 2.29 2.35 2.20 1.97 1.82 1.81 1.80 1.81 1.87 2.03 1.67 1.60 1.82 1.70 1.59 1.52 1.43 1.37 1.40 1.44 1.47 1.52 1.62 1.71 1.77 1.84 1.90 1.99 2.17 2.29 2.36
1.41 1.49 1.59 1.67 1.77 1.87 1.99 2.09 2.15 2.12 2.02 1.81 1.73 1.73 1.73 1.66 1.82 1.49 1.49 1.68 1.57 1.48 1.39 1.34 1.27 1.28 1.30 1.34 1.38 1.39 1.41 1.42 1.44 1.46 1.49 1.57 1.74 1.95
1.41 1.45 1.50 1.56 1.64 1.67 1.69 1.75 1.88 2.00 2.09 1.99 1.80 1.76 1.75 1.69 1.60 1.40 1.30 1.28 1.31 1.38 1.33 1.30 1.22 1.17 1.18 1.18 1.14 1.13 1.12 1.15 1.19 1.21 1.21 1.27 1.34 1.44
1.29 1.35 1.35 1.34 1.40 1.51 1.58 1.57 1.62 1.73 1.86 1.91 1.79 1.65 1.62 1.61 1.55 1.47 1.25 1.12 1.11 1.16 1.10 1.05 1.06 1.03 0.99 1.00 1.01 0.97 0.94 0.96 1.00 1.04 1.05 1.08 1.14 1.22
1.13 1.14 1.15 1.17 1.17 1.22 1.29 1.36 1.37 1.39 1.54 1.59 1.57 1.52 1.47 1.41 1.45 1.44 1.31 1.33 1.12 1.07 0.98 0.90 0.87 0.86 0.82 0.80 0.83 0.89 0.87 0.81 0.78 0.82 0.86 0.90 0.94 0.99
0.89 0.89 0.95 1.04 1.06 1.08 1.07 1.11 1.14 1.25 1.35 1.41 1.39 1.39 1.40 1.32 1.33 1.39 1.34 1.28 1.16 0.96 0.96 0.83 0.75 0.69 0.69 0.70 0.68 0.70 0.74 0.78 0.84 0.83 0.76 0.70 0.69 0.70
0.72 0.70 0.71 0.83 0.91 0.88 0.81 0.91 1.03 1.16 1.24 1.27 1.23 1.18 1.16 1.24 1.23 1.19 1.18 1.20 1.14 1.01 1.05 0.91 0.82 0.77 0.78 0.76 0.71 0.67 0.68 0.68 0.69 0.70 0.69 0.64 0.62 0.58
0.71 0.72 0.66 0.69 0.71 0.67 0.66 0.78 0.95 0.99 1.05 1.15 1.15 1.16 1.16 1.16 1.17 1.15 1.21 1.27 1.29 1.09 1.07 0.99 0.88 0.89 0.86 0.81 0.77 0.68 0.64 0.69 0.66 0.62 0.62 0.61 0.61 0.60
0.70 0.69 0.60 0.56 0.62 0.63 0.64 0.68 0.75 0.76 0.85 1.01 1.12 1.10 1.14 1.20 1.26 1.22 1.30 1.35 1.32 1.21 1.25 1.17 0.99 0.90 0.72 0.64 0.68 0.61 0.60 0.63 0.67 0.64 0.63 0.63 0.63 0.63
0.68 0.67 0.68 0.65 0.60 0.61 0.60 0.64 0.73 0.79 0.80 0.84 1.03 1.04 1.01 1.10 1.20 1.27 1.36 1.37 1.33 1.28 1.33 1.34 1.05 0.96 0.78 0.79 0.71 0.57 0.55 0.54 0.60 0.61 0.62 0.62 0.64 0.68
0.61 0.55 0.57 0.61 0.61 0.59 0.63 0.76 0.82 0.87 0.73 0.73 0.83 0.90 0.93 0.98 1.01 1.11 1.32 1.49 1.44 1.24 1.22 1.32 1.13 1.02 0.90 0.87 0.78 0.67 0.58 0.54 0.51 0.54 0.56 0.60 0.65 0.73
0.60 0.57 0.52 0.52 0.53 0.55 0.64 0.78 0.85 0.85 0.77 0.78 0.94 1.03 1.01 1.09 1.06 1.12 1.35 1.45 1.40 1.36 1.19 1.24 1.21 1.20 1.15 0.91 0.82 0.77 0.71 0.65 0.56 0.54 0.54 0.56 0.64 0.69
0.57 0.61 0.55 0.45 0.42 0.46 0.58 0.66 0.71 0.69 0.79 0.96 1.06 1.08 1.10 1.16 1.12 1.09 1.25 1.35 1.42 1.46 1.24 1.25 1.27 1.31 1.36 1.10 0.88 0.81 0.82 0.81 0.78 0.78 0.74 0.67 0.65 0.65
0.61 0.62 0.55 0.46 0.42 0.44 0.52 0.58 0.59 0.69 0.87 1.06 1.15 1.13 1.05 1.03 1.04 1.02 1.15 1.23 1.26 1.24 1.16 1.23 1.37 1.41 1.33 1.15 0.99 0.86 0.87 0.95 1.03 1.11 1.08 1.02 0.88 0.82
0.53 0.49 0.45 0.45 0.46 0.56 0.58 0.59 0.69 0.90 1.02 1.09 1.16 1.16 1.05 0.98 0.96 0.92 1.02 1.16 1.15 0.99 0.86 0.94 1.17 1.21 1.26 1.21 1.11 1.05 1.04 1.04 1.15 1.30 1.34 1.27 1.15 1.02
0.48 0.50 0.54 0.57 0.60 0.69 0.78 0.87 0.91 0.97 0.97 1.04 1.08 1.04 0.93 0.89 0.93 0.93 1.02 1.13 1.17 1.06 0.88 0.84 0.96 1.12 1.22 1.15 1.16 1.16 1.15 1.23 1.24 1.34 1.49 1.52 1.37 1.12
0.38 0.56 0.77 0.81 0.87 0.94 0.97 1.02 1.08 1.01 0.95 0.95 0.98 0.99 0.95 0.92 0.91 0.88 0.97 1.06 1.16 1.12 1.01 0.93 0.94 1.00 1.02 1.04 1.10 1.11 1.13 1.22 1.33 1.41 1.55 1.69 1.63 1.35
0.39 0.65 0.77 0.82 0.89 0.91 0.92 0.96 1.02 1.06 0.99 0.93 0.93 0.94 0.93 0.91 0.92 0.88 0.90 1.03 1.13 1.05 0.98 0.93 0.90 0.94 0.96 0.92 0.94 1.01 1.08 1.23 1.36 1.42 1.42 1.54 1.73 1.57
0.57 0.74 0.76 0.80 0.85 0.81 0.80 0.85 0.90 0.91 0.84 0.81 0.81 0.81 0.81 0.82 0.88 0.89 0.84 0.84 0.87 0.84 0.81 0.80 0.84 0.93 1.00 1.06 1.02 1.07 1.16 1.23 1.32 1.35 1.38 1.45 1.63 1.57
0.65 0.70 0.71 0.72 0.76 0.75 0.74 0.75 0.73 0.69 0.65 0.67 0.74 0.76 0.76 0.76 0.77 0.78 0.72 0.69 0.75 0.76 0.74 0.78 0.82 0.90 0.98 1.03 1.19 1.29 1.22 1.11 1.14 1.29 1.42 1.47 1.57 1.55
0.60 0.62 0.64 0.65 0.66 0.70 0.70 0.64 0.60 0.57 0.55 0.56 0.60 0.66 0.69 0.67 0.68 0.65 0.59 0.53 0.61 0.67 0.69 0.72 0.74 0.77 0.82 0.90 1.04 1.19 1.21 1.23 1.19 1.26 1.34 1.36 1.29 1.22
0.51 0.53 0.51 0.50 0.52 0.55 0.53 0.50 0.48 0.50 0.48 0.49 0.51 0.52 0.52 0.55 0.57 0.54 0.50 0.50 0.55 0.57 0.61 0.63 0.63 0.68 0.77 0.88 1.01 1.13 1.16 1.05 1.02 1.10 1.16 1.06 0.96 1.01
0.48 0.47 0.43 0.40 0.40 0.42 0.43 0.44 0.43 0.45 0.45 0.48 0.47 0.44 0.43 0.43 0.42 0.42 0.43 0.42 0.43 0.44 0.49 0.54 0.57 0.63 0.67 0.69 0.75 0.81 0.81 0.76 0.71 0.74 0.87 0.97 0.97 0.99

GEFSNE_prec_meanprecacc_234.txt.gz
Total_Precipitation_Accumulation
1.71 1.82 1.92 1.92 1.98 2.06 2.19 2.31 2.38 2.23 1.99 1.83 1.83 1.81 1.82 1.88 2.04 1.68 1.61 1.85 1.73 1.62 1.54 1.45 1.40 1.44 1.48 1.52 1.58 1.69 1.79 1.85 1.91 1.96 2.04 2.21 2.33 2.41
1.46 1.54 1.64 1.71 1.81 1.91 2.03 2.12 2.18 2.16 2.06 1.84 1.75 1.74 1.74 1.67 1.83 1.50 1.50 1.70 1.59 1.50 1.41 1.36 1.29 1.30 1.33 1.38 1.42 1.44 1.46 1.47 1.50 1.52 1.54 1.61 1.77 1.98
1.49 1.52 1.58 1.62 1.69 1.70 1.73 1.78 1.90 2.02 2.12 2.02 1.83 1.78 1.77 1.70 1.61 1.42 1.32 1.30 1.32 1.39 1.35 1.31 1.24 1.18 1.20 1.21 1.18 1.17 1.16 1.18 1.23 1.25 1.26 1.32 1.38 1.47
1.36 1.43 1.43 1.40 1.45 1.55 1.61 1.60 1.65 1.76 1.88 1.94 1.82 1.67 1.63 1.62 1.57 1.49 1.27 1.14 1.13 1.18 1.11 1.06 1.07 1.04 1.00 1.02 1.04 1.00 0.97 0.99 1.02 1.07 1.08 1.12 1.18 1.26
1.19 1.20 1.20 1.22 1.21 1.25 1.32 1.38 1.39 1.42 1.57 1.62 1.61 1.56 1.51 1.44 1.47 1.46 1.33 1.35 1.15 1.10 1.00 0.92 0.89 0.87 0.83 0.81 0.85 0.92 0.90 0.83 0.81 0.85 0.88 0.93 0.98 1.03
0.92 0.93 0.99 1.08 1.10 1.12 1.10 1.14 1.17 1.29 1.39 1.46 1.43 1.44 1.46 1.36 1.36 1.41 1.37 1.30 1.18 0.98 0.98 0.85 0.77 0.70 0.70 0.71 0.70 0.72 0.77 0.81 0.86 0.85 0.78 0.71 0.71 0.73
0.73 0.72 0.73 0.87 0.96 0.93 0.86 0.96 1.08 1.21 1.29 1.33 1.28 1.24 1.23 1.30 1.28 1.22 1.22 1.23 1.17 1.03 1.06 0.93 0.84 0.78 0.79 0.77 0.73 0.68 0.70 0.70 0.71 0.72 0.70 0.65 0.63 0.61
0.72 0.73 0.67 0.71 0.75 0.72 0.71 0.83 0.99 1.03 1.09 1.20 1.21 1.22 1.22 1.23 1.20 1.18 1.25 1.31 1.33 1.12 1.08 1.01 0.90 0.91 0.87 0.82 0.77 0.69 0.65 0.70 0.68 0.64 0.63 0.62 0.62 0.62
0.71 0.70 0.61 0.58 0.65 0.66 0.67 0.71 0.78 0.79 0.88 1.06 1.19 1.18 1.20 1.27 1.30 1.25 1.33 1.38 1.35 1.25 1.28 1.21 1.02 0.92 0.73 0.66 0.69 0.62 0.61 0.65 0.68 0.65 0.64 0.64 0.65 0.65
0.69 0.69 0.70 0.66 0.62 0.63 0.62 0.65 0.74 0.80 0.81 0.86 1.07 1.08 1.06 1.16 1.25 1.31 1.39 1.40 1.37 1.32 1.37 1.37 1.08 0.98 0.80 0.80 0.73 0.59 0.57 0.56 0.62 0.63 0.64 0.65 0.67 0.70
0.62 0.57 0.59 0.63 0.62 0.61 0.65 0.77 0.83 0.88 0.74 0.75 0.85 0.94 0.97 1.04 1.07 1.17 1.38 1.54 1.49 1.30 1.27 1.36 1.16 1.05 0.93 0.90 0.80 0.70 0.60 0.57 0.54 0.56 0.58 0.62 0.68 0.76
0.61 0.58 0.53 0.53 0.54 0.56 0.65 0.79 0.86 0.86 0.79 0.79 0.96 1.06 1.05 1.13 1.12 1.19 1.41 1.51 1.45 1.41 1.24 1.28 1.25 1.24 1.18 0.94 0.85 0.79 0.73 0.66 0.57 0.56 0.56 0.58 0.67 0.72
0.58 0.62 0.56 0.47 0.45 0.48 0.59 0.67 0.72 0.71 0.81 0.99 1.09 1.11 1.14 1.20 1.18 1.16 1.30 1.40 1.48 1.51 1.28 1.29 1.31 1.34 1.39 1.13 0.90 0.83 0.83 0.82 0.80 0.79 0.76 0.70 0.68 0.68
0.62 0.63 0.56 0.47 0.43 0.46 0.54 0.60 0.62 0.71 0.90 1.09 1.18 1.16 1.09 1.08 1.10 1.09 1.21 1.29 1.33 1.30 1.21 1.28 1.42 1.44 1.37 1.18 1.01 0.88 0.89 0.97 1.05 1.13 1.10 1.04 0.90 0.85
0.55 0.51 0.47 0.47 0.47 0.57 0.60 0.61 0.70 0.92 1.05 1.12 1.20 1.20 1.10 1.04 1.02 0.98 1.07 1.21 1.20 1.03 0.90 0.98 1.21 1.25 1.30 1.24 1.14 1.07 1.06 1.07 1.17 1.33 1.37 1.30 1.18 1.05
0.50 0.51 0.55 0.59 0.62 0.70 0.79 0.89 0.93 0.99 1.00 1.07 1.12 1.08 0.98 0.94 0.98 0.97 1.06 1.16 1.20 1.09 0.91 0.87 1.00 1.16 1.26 1.19 1.19 1.20 1.18 1.26 1.26 1.36 1.51 1.55 1.40 1.15
0.39 0.57 0.78 0.83 0.89 0.96 0.99 1.04 1.10 1.04 0.97 0.98 1.00 1.02 0.98 0.94 0.93 0.90 0.99 1.07 1.17 1.13 1.02 0.94 0.96 1.01 1.03 1.06 1.12 1.13 1.16 1.24 1.35 1.43 1.57 1.71 1.65 1.37
0.40 0.65 0.77 0.83 0.91 0.93 0.94 0.98 1.04 1.07 0.99 0.94 0.94 0.95 0.94 0.92 0.93 0.89 0.91 1.04 1.14 1.05 0.99 0.93 0.90 0.94 0.97 0.94 0.95 1.03 1.10 1.26 1.39 1.45 1.44 1.57 1.75 1.59
0.57 0.74 0.77 0.81 0.87 0.83 0.83 0.87 0.91 0.92 0.85 0.82 0.82 0.82 0.81 0.82 0.89 0.89 0.84 0.85 0.88 0.85 0.82 0.81 0.85 0.94 1.01 1.08 1.04 1.09 1.19 1.27 1.36 1.39 1.42 1.49 1.66 1.60
0.67 0.71 0.73 0.74 0.77 0.77 0.75 0.76 0.74 0.69 0.65 0.68 0.74 0.76 0.76 0.77 0.77 0.79 0.73 0.70 0.76 0.76 0.74 0.78 0.83 0.91 0.99 1.05 1.20 1.31 1.24 1.15 1.18 1.34 1.47 1.51 1.61 1.59
0.62 0.64 0.66 0.67 0.67 0.72 0.71 0.65 0.61 0.57 0.55 0.56 0.61 0.67 0.69 0.68 0.68 0.65 0.60 0.54 0.62 0.68 0.70 0.73 0.75 0.78 0.83 0.91 1.06 1.21 1.24 1.26 1.23 1.30 1.39 1.42 1.35 1.26
0.54 0.55 0.54 0.52 0.54 0.56 0.54 0.51 0.49 0.50 0.49 0.49 0.52 0.52 0.52 0.56 0.57 0.55 0.51 0.51 0.57 0.59 0.62 0.64 0.64 0.69 0.78 0.89 1.02 1.15 1.18 1.08 1.05 1.13 1.19 1.12 1.03 1.07
0.52 0.49 0.45 0.42 0.41 0.43 0.44 0.45 0.44 0.45 0.46 0.48 0.47 0.44 0.44 0.45 0.43 0.43 0.44 0.44 0.45 0.45 0.50 0.55 0.58 0.64 0.68 0.70 0.76 0.83 0.83 0.79 0.74 0.76 0.90 1.01 1.01 1.04

GEFSNE_prec_meanprecacc_240.txt.gz
Total_Precipitation_Accumulation
1.75 1.86 1.96 1.96 2.02 2.11 2.24 2.36 2.43 2.27 2.03 1.87 1.87 1.84 1.85 1.90 2.06 1.69 1.63 1.85 1.73 1.62 1.54 1.45 1.41 1.45 1.50 1.55 1.60 1.72 1.82 1.89 1.96 2.02 2.10 2.26 2.38 2.46
1.51 1.59 1.68 1.75 1.86 1.95 2.08 2.17 2.24 2.22 2.11 1.89 1.81 1.78 1.77 1.69 1.85 1.52 1.53 1.71 1.59 1.50 1.42 1.36 1.31 1.32 1.34 1.40 1.45 1.47 1.49 1.50 1.54 1.57 1.61 1.67 1.82 2.04
1.55 1.59 1.63 1.67 1.75 1.76 1.79 1.84 1.97 2.09 2.18 2.08 1.89 1.82 1.81 1.74 1.64 1.45 1.35 1.33 1.35 1.40 1.35 1.32 1.25 1.20 1.21 1.23 1.20 1.19 1.19 1.22 1.26 1.29 1.32 1.39 1.44 1.52
1.43 1.50 1.49 1.46 1.52 1.62 1.68 1.67 1.72 1.83 1.95 2.01 1.88 1.73 1.69 1.67 1.62 1.53 1.30 1.17 1.17 1.20 1.12 1.08 1.09 1.06 1.01 1.03 1.05 1.02 0.99 1.02 1.06 1.10 1.12 1.18 1.24 1.31
1.24 1.25 1.27 1.30 1.28 1.32 1.38 1.44 1.46 1.49 1.63 1.69 1.66 1.60 1.55 1.49 1.52 1.49 1.36 1.39 1.17 1.11 1.01 0.93 0.91 0.89 0.85 0.83 0.87 0.94 0.91 0.85 0.83 0.87 0.91 0.97 1.03 1.08
0.97 0.99 1.06 1.16 1.18 1.21 1.18 1.23 1.26 1.37 1.46 1.52 1.49 1.48 1.50 1.40 1.40 1.45 1.41 1.35 1.22 1.01 1.00 0.87 0.79 0.72 0.71 0.73 0.71 0.74 0.79 0.83 0.89 0.87 0.80 0.74 0.75 0.78
0.77 0.75 0.77 0.91 1.01 0.99 0.92 1.03 1.16 1.31 1.37 1.40 1.35 1.29 1.27 1.34 1.32 1.27 1.27 1.29 1.22 1.08 1.11 0.96 0.87 0.81 0.81 0.79 0.74 0.70 0.72 0.72 0.74 0.75 0.73 0.68 0.66 0.65
0.76 0.76 0.69 0.73 0.77 0.75 0.74 0.87 1.06 1.10 1.18 1.29 1.30 1.27 1.27 1.29 1.26 1.24 1.31 1.37 1.37 1.16 1.14 1.06 0.96 0.96 0.91 0.85 0.79 0.70 0.67 0.72 0.71 0.67 0.66 0.64 0.64 0.64
0.76 0.74 0.64 0.60 0.67 0.69 0.70 0.74 0.82 0.83 0.93 1.13 1.27 1.23 1.24 1.32 1.36 1.31 1.39 1.44 1.39 1.29 1.32 1.27 1.08 0.99 0.79 0.71 0.74 0.65 0.63 0.67 0.71 0.68 0.67 0.66 0.66 0.66
0.73 0.72 0.73 0.69 0.65 0.66 0.65 0.69 0.78 0.83 0.84 0.90 1.12 1.14 1.10 1.21 1.31 1.37 1.46 1.46 1.41 1.37 1.41 1.42 1.13 1.03 0.84 0.84 0.77 0.63 0.59 0.59 0.64 0.66 0.67 0.67 0.68 0.71
0.65 0.59 0.62 0.65 0.65 0.63 0.67 0.80 0.87 0.92 0.77 0.78 0.88 0.97 1.00 1.07 1.13 1.23 1.44 1.59 1.53 1.34 1.32 1.40 1.20 1.09 0.97 0.93 0.84 0.72 0.63 0.59 0.56 0.58 0.61 0.65 0.70 0.78
0.63 0.60 0.55 0.55 0.56 0.57 0.67 0.81 0.90 0.90 0.82 0.82 0.98 1.08 1.07 1.15 1.16 1.25 1.48 1.56 1.49 1.45 1.28 1.32 1.29 1.27 1.23 0.98 0.88 0.81 0.76 0.69 0.60 0.58 0.59 0.62 0.71 0.75
0.60 0.63 0.58 0.48 0.45 0.49 0.61 0.68 0.75 0.74 0.85 1.01 1.10 1.13 1.16 1.23 1.22 1.20 1.36 1.45 1.52 1.56 1.31 1.32 1.35 1.38 1.44 1.17 0.93 0.85 0.86 0.85 0.82 0.82 0.79 0.73 0.71 0.71
0.66 0.66 0.58 0.48 0.44 0.46 0.54 0.61 0.63 0.73 0.92 1.11 1.20 1.19 1.12 1.11 1.16 1.15 1.26 1.35 1.40 1.36 1.27 1.32 1.46 1.49 1.41 1.21 1.04 0.91 0.92 0.99 1.07 1.16 1.13 1.08 0.94 0.88
0.58 0.55 0.50 0.50 0.49 0.59 0.61 0.62 0.72 0.94 1.07 1.14 1.22 1.23 1.13 1.08 1.08 1.04 1.12 1.28 1.27 1.09 0.95 1.03 1.25 1.29 1.34 1.28 1.17 1.10 1.08 1.09 1.19 1.35 1.40 1.33 1.21 1.08
0.51 0.53 0.57 0.61 0.64 0.72 0.81 0.91 0.95 1.01 1.02 1.09 1.15 1.11 1.00 0.98 1.05 1.06 1.13 1.21 1.25 1.14 0.95 0.90 1.02 1.18 1.29 1.22 1.22 1.22 1.20 1.29 1.29 1.39 1.54 1.57 1.42 1.18
0.41 0.58 0.80 0.85 0.92 0.98 1.02 1.06 1.11 1.05 0.99 1.00 1.03 1.04 1.00 0.99 1.00 0.97 1.04 1.11 1.21 1.16 1.04 0.96 0.98 1.04 1.06 1.08 1.14 1.15 1.18 1.27 1.38 1.46 1.60 1.74 1.68 1.39
0.42 0.68 0.80 0.85 0.93 0.96 0.96 0.99 1.06 1.09 1.02 0.96 0.96 0.97 0.96 0.95 0.97 0.93 0.95 1.08 1.17 1.08 1.00 0.95 0.93 0.97 1.00 0.96 0.97 1.05 1.13 1.28 1.41 1.48 1.47 1.60 1.78 1.61
0.59 0.76 0.78 0.83 0.89 0.84 0.84 0.89 0.92 0.94 0.87 0.84 0.83 0.83 0.83 0.85 0.91 0.92 0.87 0.88 0.91 0.87 0.83 0.83 0.87 0.96 1.03 1.10 1.06 1.12 1.22 1.30 1.38 1.42 1.44 1.51 1.69 1.62
0.67 0.72 0.74 0.75 0.80 0.79 0.78 0.78 0.76 0.71 0.67 0.69 0.76 0.78 0.78 0.78 0.79 0.80 0.75 0.73 0.79 0.80 0.77 0.81 0.85 0.92 1.01 1.07 1.23 1.35 1.28 1.19 1.22 1.37 1.50 1.54 1.64 1.62
0.63 0.64 0.67 0.68 0.69 0.75 0.74 0.68 0.63 0.59 0.57 0.58 0.63 0.68 0.71 0.69 0.70 0.67 0.62 0.56 0.64 0.71 0.73 0.75 0.77 0.80 0.86 0.94 1.09 1.26 1.29 1.32 1.28 1.34 1.43 1.47 1.39 1.29
0.55 0.56 0.54 0.53 0.55 0.59 0.58 0.54 0.52 0.52 0.51 0.51 0.54 0.54 0.54 0.58 0.60 0.57 0.53 0.54 0.59 0.60 0.64 0.65 0.66 0.71 0.81 0.92 1.06 1.21 1.24 1.13 1.10 1.18 1.24 1.16 1.07 1.12
0.52 0.50 0.46 0.43 0.43 0.46 0.47 0.47 0.46 0.47 0.48 0.51 0.50 0.47 0.46 0.47 0.46 0.46 0.47 0.46 0.47 0.47 0.52 0.57 0.60 0.66 0.70 0.72 0.79 0.87 0.88 0.84 0.79 0.82 0.96 1.06 1.06 1.09

GEFSNE_prec_meanprecacc_246.txt.gz
Total_Precipitation_Accumulation
1.82 1.95 2.03 2.02 2.09 2.17 2.31 2.43 2.49 2.32 2.08 1.94 1.93 1.88 1.88 1.94 2.10 1.73 1.68 1.89 1.75 1.63 1.55 1.45 1.41 1.46 1.50 1.56 1.62 1.74 1.85 1.92 2.00 2.06 2.14 2.29 2.41 2.49
1.58 1.68 1.77 1.82 1.93 2.02 2.14 2.24 2.30 2.26 2.16 1.94 1.88 1.83 1.81 1.72 1.88 1.57 1.59 1.76 1.63 1.52 1.43 1.37 1.31 1.32 1.35 1.40 1.46 1.48 1.51 1.52 1.57 1.60 1.64 1.71 1.86 2.07
1.61 1.65 1.71 1.75 1.82 1.81 1.83 1.89 2.02 2.14 2.23 2.14 1.95 1.88 1.88 1.80 1.70 1.51 1.41 1.40 1.39 1.43 1.37 1.33 1.26 1.20 1.22 1.23 1.20 1.20 1.21 1.24 1.28 1.31 1.34 1.42 1.47 1.55
1.50 1.58 1.57 1.55 1.61 1.68 1.73 1.72 1.77 1.89 2.01 2.07 1.94 1.78 1.77 1.75 1.69 1.61 1.36 1.22 1.22 1.23 1.15 1.09 1.10 1.07 1.02 1.03 1.05 1.02 1.00 1.03 1.07 1.11 1.14 1.20 1.27 1.33
1.31 1.33 1.34 1.37 1.34 1.38 1.44 1.50 1.52 1.54 1.70 1.76 1.74 1.68 1.63 1.56 1.61 1.58 1.43 1.46 1.21 1.14 1.04 0.95 0.92 0.90 0.86 0.84 0.88 0.94 0.92 0.86 0.85 0.88 0.92 0.99 1.06 1.11
1.04 1.06 1.12 1.21 1.24 1.27 1.26 1.30 1.33 1.45 1.54 1.61 1.57 1.56 1.57 1.46 1.48 1.53 1.48 1.41 1.27 1.04 1.02 0.88 0.80 0.73 0.72 0.74 0.73 0.75 0.80 0.84 0.90 0.88 0.82 0.76 0.78 0.81
0.84 0.82 0.82 0.97 1.08 1.05 0.97 1.08 1.22 1.38 1.45 1.48 1.42 1.35 1.32 1.39 1.38 1.33 1.33 1.35 1.29 1.14 1.15 0.98 0.88 0.82 0.82 0.80 0.76 0.71 0.73 0.74 0.75 0.76 0.74 0.70 0.69 0.68
0.83 0.83 0.75 0.78 0.81 0.80 0.79 0.92 1.11 1.16 1.26 1.38 1.38 1.35 1.32 1.34 1.32 1.31 1.38 1.43 1.44 1.21 1.18 1.10 0.99 0.99 0.93 0.87 0.81 0.71 0.68 0.74 0.73 0.69 0.68 0.67 0.67 0.67
0.83 0.81 0.70 0.64 0.71 0.73 0.74 0.78 0.86 0.87 0.98 1.21 1.36 1.31 1.32 1.38 1.44 1.39 1.47 1.51 1.45 1.34 1.38 1.32 1.12 1.02 0.81 0.73 0.76 0.67 0.65 0.69 0.73 0.70 0.69 0.68 0.68 0.69
0.79 0.79 0.80 0.74 0.69 0.70 0.69 0.74 0.83 0.88 0.89 0.94 1.17 1.21 1.18 1.29 1.40 1.46 1.53 1.51 1.46 1.41 1.46 1.46 1.16 1.07 0.87 0.87 0.80 0.65 0.62 0.62 0.67 0.69 0.69 0.69 0.70 0.74
0.69 0.63 0.67 0.70 0.68 0.65 0.71 0.85 0.92 0.97 0.81 0.81 0.92 1.02 1.05 1.13 1.21 1.30 1.50 1.64 1.57 1.38 1.36 1.44 1.24 1.13 1.02 0.97 0.86 0.75 0.65 0.62 0.59 0.61 0.63 0.66 0.72 0.80
0.68 0.64 0.58 0.57 0.57 0.59 0.70 0.84 0.93 0.94 0.86 0.86 1.03 1.12 1.10 1.19 1.21 1.31 1.54 1.62 1.54 1.50 1.33 1.37 1.33 1.31 1.27 1.02 0.92 0.84 0.78 0.71 0.62 0.61 0.62 0.64 0.73 0.77
0.65 0.68 0.61 0.50 0.47 0.50 0.63 0.71 0.78 0.78 0.89 1.06 1.15 1.18 1.20 1.28 1.27 1.27 1.42 1.50 1.56 1.59 1.35 1.36 1.39 1.41 1.48 1.22 0.98 0.90 0.89 0.87 0.84 0.84 0.82 0.76 0.75 0.74
0.69 0.70 0.61 0.50 0.46 0.49 0.57 0.63 0.66 0.76 0.96 1.14 1.23 1.23 1.16 1.15 1.19 1.19 1.30 1.39 1.43 1.39 1.30 1.36 1.51 1.52 1.44 1.25 1.08 0.94 0.94 1.01 1.10 1.18 1.16 1.12 0.98 0.92
0.61 0.57 0.53 0.51 0.50 0.60 0.63 0.64 0.75 0.97 1.11 1.17 1.25 1.25 1.15 1.09 1.09 1.06 1.15 1.31 1.30 1.12 0.99 1.08 1.31 1.34 1.38 1.31 1.20 1.13 1.11 1.11 1.22 1.38 1.43 1.36 1.25 1.12
0.54 0.54 0.59 0.63 0.65 0.74 0.83 0.93 0.97 1.03 1.04 1.12 1.18 1.13 1.02 0.99 1.07 1.07 1.14 1.23 1.28 1.17 0.98 0.94 1.06 1.22 1.32 1.25 1.24 1.24 1.22 1.31 1.31 1.41 1.57 1.60 1.45 1.21
0.44 0.61 0.81 0.87 0.94 1.00 1.03 1.07 1.12 1.07 1.01 1.02 1.05 1.05 1.01 1.00 1.01 0.99 1.06 1.14 1.23 1.18 1.07 1.00 1.02 1.08 1.10 1.13 1.18 1.17 1.19 1.28 1.39 1.47 1.63 1.77 1.71 1.42
0.44 0.70 0.82 0.87 0.95 0.98 0.98 1.01 1.07 1.10 1.04 1.00 0.99 0.98 0.97 0.96 0.99 0.95 0.98 1.11 1.19 1.09 1.02 0.98 0.95 1.00 1.02 1.00 1.01 1.07 1.14 1.29 1.43 1.49 1.49 1.62 1.81 1.64
0.60 0.77 0.80 0.85 0.91 0.87 0.87 0.91 0.94 0.96 0.91 0.89 0.87 0.86 0.85 0.86 0.92 0.94 0.91 0.92 0.93 0.88 0.85 0.85 0.89 0.99 1.06 1.12 1.11 1.15 1.23 1.31 1.40 1.43 1.46 1.54 1.72 1.65
0.69 0.73 0.75 0.76 0.81 0.82 0.81 0.82 0.80 0.75 0.72 0.74 0.80 0.80 0.80 0.80 0.81 0.82 0.79 0.76 0.82 0.82 0.79 0.84 0.88 0.95 1.03 1.09 1.27 1.39 1.30 1.20 1.23 1.39 1.52 1.56 1.67 1.65
0.64 0.65 0.68 0.69 0.70 0.77 0.77 0.71 0.66 0.63 0.61 0.62 0.65 0.70 0.73 0.71 0.71 0.69 0.65 0.60 0.68 0.74 0.76 0.79 0.80 0.82 0.88 0.97 1.13 1.30 1.33 1.34 1.31 1.36 1.44 1.49 1.41 1.32
0.56 0.57 0.55 0.53 0.56 0.61 0.60 0.56 0.54 0.55 0.54 0.54 0.56 0.57 0.56 0.59 0.61 0.59 0.56 0.57 0.63 0.64 0.66 0.69 0.69 0.74 0.83 0.95 1.10 1.25 1.30 1.17 1.13 1.21 1.26 1.18 1.09 1.15
0.53 0.50 0.46 0.43 0.44 0.48 0.50 0.49 0.48 0.49 0.51 0.53 0.51 0.49 0.47 0.49 0.48 0.48 0.50 0.50 0.51 0.51 0.56 0.61 0.64 0.70 0.75 0.76 0.83 0.91 0.93 0.89 0.84 0.85 0.98 1.08 1.08 1.11